Latitude: N 50° 09' 49" Longitude: W 05° 11' 53" Elevation: 168m ASL

There are 15 visitors online

Adverts

<- Previous Day | Today | Next Day ->

All Data for 20 June 2018

Time
A - D
Temp
A - D
Dew Point
A - D
Humidity
A - D
Pressure
A - D
Wind
A - D
Wind Dir Gust
A - D
Rain Rate
A - D
Rain Total
00:00 14.5 14.4 99 1023.3 10.7 S 12.1 0.0 0.0
00:01 14.5 14.4 99 1023.4 10.7 S 12.1 0.0 0.0
00:02 14.5 14.4 99 1023.4 10.7 S 12.1 0.0 0.0
00:03 14.5 14.4 99 1023.4 10.7 S 12.1 0.0 0.0
00:05 14.5 14.4 99 1023.4 10.7 S 10.7 0.0 0.0
00:06 14.4 14.3 99 1023.4 9.2 S 10.7 0.0 0.0
00:07 14.4 14.3 99 1023.3 7.6 S 10.7 0.0 0.0
00:08 14.4 14.3 99 1023.3 9.2 S 10.7 0.0 0.0
00:09 14.4 14.3 99 1023.3 9.8 S 10.7 0.0 0.0
00:10 14.4 14.3 99 1023.3 8.3 SW 10.7 0.0 0.0
00:11 14.4 14.3 99 1023.3 11.4 SE 11.4 0.0 0.0
00:12 14.4 14.3 99 1023.4 8.3 N 11.4 0.0 0.0
00:13 14.4 14.3 99 1023.4 9.2 S 11.4 0.0 0.0
00:14 14.4 14.3 99 1023.3 8.3 WSW 11.4 0.0 0.0
00:15 14.4 14.3 99 1023.3 9.2 S 11.4 0.0 0.0
00:16 14.4 14.3 99 1023.4 10.7 S 11.4 0.0 0.0
00:17 14.4 14.3 99 1023.3 10.7 SW 11.4 0.0 0.0
00:18 14.4 14.3 99 1023.3 6.9 SW 11.4 0.0 0.0
00:19 14.4 14.3 99 1023.5 10.7 S 11.4 0.0 0.0
00:20 14.4 14.3 99 1023.3 9.2 S 11.4 0.0 0.0
00:21 14.4 14.3 99 1023.3 7.6 S 10.7 0.0 0.0
00:22 14.4 14.3 99 1023.3 9.8 S 10.7 0.0 0.0
00:24 14.4 14.3 99 1023.3 11.4 S 11.4 0.0 0.0
00:25 14.4 14.3 99 1023.5 13.6 SE 13.6 0.0 0.0
00:26 14.4 14.3 99 1023.3 9.8 S 13.6 0.0 0.0
00:27 14.4 14.3 99 1023.3 6.9 S 13.6 0.0 0.0
00:28 14.4 14.3 99 1023.4 6.0 S 13.6 0.0 0.0
00:29 14.4 14.3 99 1023.2 11.4 SW 13.6 0.0 0.0
00:30 14.4 14.3 99 1023.2 10.7 SW 13.6 0.0 0.0
00:31 14.4 14.3 99 1023.2 9.2 SE 13.6 0.0 0.0
00:32 14.4 14.3 99 1023.2 6.0 SE 13.6 0.0 0.0
00:33 14.4 14.3 99 1023.1 10.7 SW 13.6 0.0 0.0
00:34 14.4 14.3 99 1023.1 11.4 S 13.6 0.0 0.0
00:35 14.4 14.3 99 1023.2 6.0 SSW 11.4 0.0 0.0
00:36 14.4 14.3 99 1023.1 9.2 SW 11.4 0.0 0.0
00:37 14.4 14.3 99 1023.2 7.6 SW 11.4 0.0 0.0
00:38 14.4 14.3 99 1023.0 6.0 SW 11.4 0.0 0.0
00:39 14.4 14.3 99 1023.1 6.0 WSW 11.4 0.0 0.0
00:40 14.4 14.3 99 1023.2 6.9 SW 11.4 0.0 0.0
00:41 14.4 14.3 99 1023.2 9.2 S 11.4 0.0 0.0
00:43 14.4 14.3 99 1023.0 7.6 S 11.4 0.0 0.0
00:44 14.4 14.3 99 1023.1 6.9 SE 11.4 0.0 0.0
00:45 14.4 14.3 99 1023.1 6.9 S 9.2 0.0 0.0
00:46 14.4 14.3 99 1023.1 10.7 S 10.7 0.0 0.0
00:47 14.5 14.4 99 1023.0 7.6 S 10.7 0.0 0.0
00:48 14.4 14.3 99 1023.0 7.6 S 10.7 0.0 0.0
00:49 14.4 14.3 99 1022.9 6.9 WSW 10.7 0.0 0.0
00:50 14.4 14.3 99 1023.1 6.9 S 10.7 0.0 0.0
00:51 14.4 14.3 99 1023.1 9.8 S 10.7 0.0 0.0
00:52 14.4 14.3 99 1022.9 6.0 S 10.7 0.0 0.0
00:53 14.4 14.3 99 1023.2 9.2 SE 10.7 0.0 0.0
00:54 14.4 14.3 99 1022.9 6.0 S 10.7 0.0 0.0
00:55 14.4 14.3 99 1022.9 9.2 S 10.7 0.0 0.0
00:56 14.4 14.3 99 1023.0 8.3 SW 9.8 0.0 0.0
00:57 14.4 14.3 99 1022.9 9.2 S 9.8 0.0 0.0
00:58 14.4 14.3 99 1023.0 10.7 SW 10.7 0.0 0.0
00:59 14.4 14.3 99 1023.1 9.2 S 10.7 0.0 0.0
01:00 14.4 14.3 99 1023.1 9.8 SW 10.7 0.0 0.0
01:01 14.4 14.3 99 1023.1 9.8 S 10.7 0.0 0.0
01:02 14.4 14.3 99 1023.0 8.3 S 10.7 0.0 0.0
01:03 14.4 14.3 99 1023.0 9.2 S 10.7 0.0 0.0
01:04 14.4 14.3 99 1023.0 8.3 SSW 10.7 0.0 0.0
01:05 14.4 14.3 99 1023.2 6.9 SW 10.7 0.0 0.0
01:06 14.4 14.3 99 1023.1 11.4 SW 11.4 0.0 0.0
01:08 14.4 14.3 99 1023.2 11.4 S 11.4 0.0 0.0
01:09 14.4 14.3 99 1023.0 8.3 SW 11.4 0.0 0.0
01:10 14.4 14.3 99 1023.1 9.2 S 11.4 0.0 0.0
01:11 14.4 14.3 99 1023.0 9.8 S 11.4 0.0 0.0
01:12 14.3 14.2 99 1023.1 8.3 S 11.4 0.0 0.0
01:13 14.3 14.2 99 1023.0 8.3 SW 11.4 0.0 0.0
01:14 14.3 14.2 99 1023.0 8.3 S 11.4 0.0 0.0
01:15 14.3 14.2 99 1022.9 10.7 SW 11.4 0.0 0.0
01:16 14.3 14.2 99 1023.0 8.3 SW 11.4 0.0 0.0
01:17 14.3 14.2 99 1023.0 7.6 SE 11.4 0.0 0.0
01:18 14.3 14.2 99 1022.9 11.4 SSW 11.4 0.0 0.0
01:19 14.3 14.2 99 1022.9 9.8 SW 11.4 0.0 0.0
01:20 14.3 14.2 99 1023.0 10.7 S 11.4 0.0 0.0
01:21 14.3 14.2 99 1023.0 7.6 S 11.4 0.0 0.0
01:22 14.3 14.2 99 1022.9 7.6 S 11.4 0.0 0.0
01:23 14.3 14.2 99 1022.9 7.6 SW 11.4 0.0 0.0
01:24 14.3 14.2 99 1023.1 9.8 SW 11.4 0.0 0.0
01:25 14.3 14.2 99 1022.9 11.4 S 11.4 0.0 0.0
01:27 14.3 14.2 99 1022.9 5.4 SW 11.4 0.0 0.0
01:28 14.3 14.2 99 1022.8 6.0 SE 11.4 0.0 0.0
01:29 14.3 14.2 99 1022.9 6.9 S 11.4 0.0 0.0
01:30 14.3 14.2 99 1023.0 9.8 SE 11.4 0.0 0.0
01:31 14.4 14.3 99 1022.9 7.6 SE 11.4 0.0 0.0
01:32 14.4 14.3 99 1022.9 9.8 SW 11.4 0.0 0.0
01:33 14.4 14.3 99 1022.9 6.9 S 11.4 0.0 0.0
01:34 14.4 14.3 99 1022.9 9.8 SE 11.4 0.0 0.0
01:35 14.4 14.3 99 1022.9 9.8 S 11.4 0.0 0.0
01:36 14.4 14.3 99 1023.0 9.8 SW 9.8 0.0 0.0
01:37 14.4 14.3 99 1022.8 10.7 S 10.7 0.0 0.0
01:38 14.4 14.3 99 1022.9 7.6 S 10.7 0.0 0.0
01:39 14.4 14.3 99 1022.7 7.6 S 10.7 0.0 0.0
01:40 14.4 14.3 99 1022.7 8.3 SE 10.7 0.0 0.0
01:41 14.4 14.3 99 1022.7 9.2 S 10.7 0.0 0.0
01:42 14.4 14.3 99 1022.8 9.2 S 10.7 0.0 0.0
01:43 14.4 14.3 99 1022.8 9.8 SW 10.7 0.0 0.0
01:44 14.4 14.3 99 1022.7 11.4 SSW 11.4 0.0 0.0
01:46 14.4 14.3 99 1022.8 10.7 S 11.4 0.0 0.0
01:47 14.4 14.3 99 1022.8 8.3 SW 11.4 0.0 0.0
01:48 14.4 14.3 99 1022.8 8.3 SW 11.4 0.0 0.0
01:49 14.4 14.3 99 1022.7 11.4 S 12.1 0.0 0.0
01:50 14.4 14.3 99 1022.7 9.2 S 12.1 0.0 0.0
01:51 14.4 14.3 99 1022.7 10.7 SW 12.1 0.0 0.0
01:52 14.4 14.3 99 1022.8 12.1 SW 12.1 0.0 0.0
01:53 14.4 14.3 99 1022.7 9.2 S 12.1 0.0 0.0
01:54 14.4 14.3 99 1022.7 8.3 SW 12.1 0.0 0.0
01:55 14.4 14.3 99 1022.7 6.9 SW 12.1 0.0 0.0
01:56 14.4 14.3 99 1022.7 8.3 S 12.1 0.0 0.0
01:57 14.4 14.3 99 1022.7 9.8 S 12.1 0.0 0.0
01:58 14.4 14.3 99 1022.8 11.4 S 12.1 0.0 0.0
01:59 14.4 14.3 99 1022.6 11.4 SW 12.1 0.0 0.0
02:00 14.4 14.3 99 1022.6 12.1 S 12.1 0.0 0.0
02:01 14.4 14.3 99 1022.8 13.6 S 13.6 0.0 0.0
02:02 14.4 14.3 99 1022.8 13.0 SE 13.6 0.0 0.0
02:03 14.4 14.3 99 1022.8 8.3 WSW 13.6 0.0 0.0
02:05 14.4 14.3 99 1022.7 11.4 SW 13.6 0.0 0.0
02:06 14.4 14.3 99 1022.7 11.4 SW 13.6 0.0 0.0
02:07 14.4 14.3 99 1022.7 9.8 SW 13.6 0.0 0.0
02:08 14.4 14.3 99 1022.6 12.1 S 13.6 0.0 0.0
02:09 14.4 14.3 99 1022.5 7.6 W 13.6 0.0 0.0
02:10 14.4 14.3 99 1022.6 8.3 SW 13.6 0.8 0.1
02:11 14.4 14.3 99 1022.7 12.1 SW 13.6 0.8 0.1
02:12 14.4 14.3 99 1022.7 9.2 S 13.6 0.8 0.1
02:13 14.4 14.3 99 1022.6 10.7 S 13.0 0.8 0.1
02:14 14.4 14.3 99 1022.6 9.2 S 13.0 0.8 0.1
02:15 14.4 14.3 99 1022.5 9.8 S 13.0 0.0 0.1
02:16 14.4 14.3 99 1022.5 9.2 S 13.0 0.0 0.1
02:17 14.4 14.3 99 1022.5 9.8 S 13.0 0.0 0.1
02:18 14.4 14.3 99 1022.6 9.2 SW 12.1 0.0 0.1
02:19 14.4 14.3 99 1022.4 10.7 S 12.1 0.0 0.1
02:20 14.4 14.3 99 1022.6 10.7 S 12.1 0.0 0.1
02:21 14.4 14.3 99 1022.6 11.4 S 12.1 0.0 0.1
02:22 14.4 14.3 99 1022.5 12.1 S 12.1 0.0 0.1
02:24 14.4 14.3 99 1022.6 10.7 SW 12.1 0.0 0.1
02:25 14.4 14.3 99 1022.6 10.7 SSW 12.1 0.0 0.1
02:26 14.4 14.3 99 1022.5 8.3 S 12.1 0.0 0.1
02:27 14.4 14.3 99 1022.4 11.4 S 12.1 0.0 0.1
02:28 14.4 14.3 99 1022.5 8.3 S 12.1 0.0 0.1
02:29 14.4 14.3 99 1022.4 8.3 S 12.1 0.0 0.1
02:30 14.4 14.3 99 1022.5 7.6 S 12.1 0.0 0.1
02:31 14.4 14.3 99 1022.6 9.2 S 12.1 0.0 0.1
02:37 14.4 14.3 99 1022.4 9.8 SE 9.8 0.0 0.1
02:38 14.4 14.3 99 1022.3 9.2 SE 9.8 0.0 0.1
02:39 14.4 14.3 99 1022.3 10.7 S 10.7 0.0 0.1
02:40 14.4 14.3 99 1022.5 13.0 N 13.0 0.0 0.1
02:41 14.4 14.3 99 1022.5 9.2 S 13.0 0.0 0.1
02:42 14.4 14.3 99 1022.5 9.2 SW 13.0 0.0 0.1
02:43 14.4 14.3 99 1022.5 9.2 S 13.0 0.0 0.1
02:44 14.4 14.3 99 1022.6 9.8 SW 13.0 0.0 0.1
02:45 14.4 14.3 99 1022.6 11.4 SW 13.0 0.0 0.1
02:46 14.4 14.3 99 1022.6 11.4 SW 13.0 0.0 0.1
02:48 14.4 14.3 99 1022.5 10.7 S 13.0 0.0 0.1
02:49 14.4 14.3 99 1022.5 9.8 SW 13.0 0.0 0.1
02:50 14.4 14.3 99 1022.5 12.1 SSW 13.0 0.0 0.1
02:51 14.4 14.3 99 1022.6 11.4 S 13.0 0.0 0.1
02:52 14.3 14.2 99 1022.6 9.8 S 12.1 0.0 0.1
02:53 14.3 14.2 99 1022.4 9.2 S 12.1 0.0 0.1
02:54 14.3 14.2 99 1022.5 10.7 S 12.1 0.0 0.1
02:55 14.3 14.2 99 1022.6 8.3 S 12.1 0.0 0.1
02:56 14.3 14.2 99 1022.6 9.8 SE 12.1 0.0 0.1
02:57 14.3 14.2 99 1022.5 11.4 NW 12.1 0.0 0.1
02:58 14.3 14.2 99 1022.5 13.0 SW 13.0 0.0 0.1
02:59 14.3 14.2 99 1022.6 8.3 SSW 13.0 0.0 0.1
03:00 14.3 14.2 99 1022.6 9.2 SSW 13.0 0.0 0.1
03:01 14.3 14.2 99 1022.6 9.2 SSW 13.0 0.0 0.1
03:02 14.3 14.2 99 1022.6 9.2 SSW 13.0 0.0 0.1
03:04 14.3 14.2 99 1022.5 9.2 SSW 13.0 0.0 0.1
03:05 14.3 14.2 99 1022.6 9.2 SSW 13.0 0.0 0.1
03:06 14.3 14.2 99 1022.5 7.6 S 13.0 0.0 0.1
03:07 14.3 14.2 99 1022.5 11.4 SE 13.0 0.0 0.1
03:08 14.3 14.2 99 1022.5 11.4 SW 13.0 0.0 0.1
03:09 14.3 14.2 99 1022.4 12.1 SW 12.1 0.0 0.1
03:10 14.3 14.2 99 1022.4 6.9 SW 12.1 0.0 0.1
03:11 14.3 14.2 99 1022.4 11.4 S 12.1 0.0 0.1
03:12 14.3 14.2 99 1022.3 9.2 SW 12.1 0.0 0.1
03:13 14.3 14.2 99 1022.3 7.6 SW 12.1 0.0 0.1
03:14 14.3 14.2 99 1022.4 6.0 S 12.1 0.0 0.1
03:15 14.2 14.1 99 1022.4 5.4 S 12.1 0.0 0.1
03:16 14.3 14.2 99 1022.3 8.3 S 12.1 0.0 0.1
03:18 14.3 14.2 99 1022.3 6.9 S 12.1 0.0 0.1
03:19 14.3 14.2 99 1022.3 10.7 S 12.1 0.0 0.1
03:20 14.2 14.1 99 1022.2 7.6 S 11.4 0.0 0.1
03:21 14.3 14.2 99 1022.3 7.6 S 11.4 0.0 0.1
03:22 14.2 14.1 99 1022.3 9.8 SW 10.7 0.0 0.1
03:23 14.2 14.1 99 1022.3 8.3 S 10.7 0.0 0.1
03:24 14.3 14.2 99 1022.2 5.4 SE 10.7 0.0 0.1
03:25 14.2 14.1 99 1022.2 6.0 S 10.7 0.0 0.1
03:26 14.2 14.1 99 1022.2 11.4 S 11.4 0.0 0.1
03:27 14.2 14.1 99 1022.3 11.4 S 11.4 0.0 0.1
03:28 14.3 14.2 99 1022.2 10.7 SE 11.4 0.0 0.1
03:29 14.3 14.2 99 1022.3 9.8 SW 12.1 0.0 0.1
03:30 14.2 14.1 99 1022.3 9.2 SE 12.1 0.0 0.1
03:31 14.3 14.2 99 1022.3 9.2 S 12.1 0.0 0.1
03:33 14.3 14.2 99 1022.3 9.2 SW 12.1 0.0 0.1
03:34 14.2 14.1 99 1022.3 10.7 S 12.1 0.0 0.1
03:35 14.3 14.2 99 1022.2 7.6 S 12.1 0.0 0.1
03:36 14.2 14.1 99 1022.2 8.3 S 12.1 0.0 0.1
03:37 14.3 14.2 99 1022.2 8.3 S 12.1 0.0 0.1
03:38 14.2 14.1 99 1022.3 9.2 S 12.1 0.0 0.1
03:39 14.2 14.1 99 1022.3 11.4 SW 11.4 0.0 0.1
03:40 14.2 14.1 99 1022.3 10.7 SE 11.4 0.0 0.1
03:41 14.2 14.1 99 1022.2 9.8 S 11.4 0.0 0.1
03:42 14.2 14.1 99 1022.2 9.8 SW 11.4 0.0 0.1
03:43 14.2 14.1 99 1022.2 9.8 S 11.4 0.0 0.1
03:44 14.2 14.1 99 1022.0 10.7 SSW 11.4 0.0 0.1
03:45 14.2 14.1 99 1022.2 8.3 S 11.4 0.0 0.1
03:46 14.2 14.1 99 1022.2 6.9 S 11.4 0.0 0.1
03:48 14.2 14.1 99 1022.3 11.4 SW 11.4 0.0 0.1
03:49 14.2 14.1 99 1022.3 10.7 SE 11.4 0.0 0.1
03:50 14.2 14.1 99 1022.1 10.7 S 11.4 0.0 0.1
03:51 14.2 14.1 99 1022.2 10.7 S 11.4 0.0 0.1
03:52 14.2 14.1 99 1022.3 9.2 SW 11.4 0.0 0.1
03:53 14.1 14.0 99 1022.2 9.8 SE 11.4 0.0 0.1
03:54 14.1 14.0 99 1022.3 7.6 SE 11.4 0.0 0.1
03:55 14.2 14.1 99 1022.3 9.2 S 11.4 0.0 0.1
03:56 14.1 14.0 99 1022.3 11.4 SW 11.4 0.0 0.1
03:57 14.1 14.0 99 1022.3 9.2 S 13.0 0.0 0.1
03:58 14.1 14.0 99 1022.3 9.8 SSE 13.0 0.0 0.1
03:59 14.1 14.0 99 1022.2 9.2 S 13.0 0.0 0.1
04:00 14.1 14.0 99 1022.2 11.4 SW 13.0 0.0 0.1
04:02 14.1 14.0 99 1022.0 9.2 WSW 13.0 0.0 0.1
04:03 14.1 14.0 99 1022.0 9.2 WSW 13.0 0.0 0.1
04:04 14.1 14.0 99 1022.1 13.0 S 13.0 0.0 0.1
04:05 14.1 14.0 99 1022.1 9.8 S 13.0 0.0 0.1
04:06 14.1 14.0 99 1022.0 7.6 S 13.0 0.0 0.1
04:07 14.1 14.0 99 1022.0 7.6 S 13.0 0.0 0.1
04:08 14.1 14.0 99 1021.9 9.2 S 13.0 0.0 0.1
04:09 14.1 14.0 99 1022.0 11.4 SE 13.0 0.0 0.1
04:10 14.1 14.0 99 1021.8 8.3 S 13.0 0.0 0.1
04:11 14.1 14.0 99 1021.8 8.3 S 13.0 0.0 0.1
04:12 14.0 13.9 99 1021.9 7.6 S 13.0 0.0 0.1
04:13 14.0 13.9 99 1021.9 7.6 S 13.0 0.0 0.1
04:14 14.0 13.9 99 1021.9 6.9 S 13.0 0.0 0.1
04:16 14.0 13.9 99 1021.9 7.6 S 11.4 0.0 0.1
04:17 14.0 13.9 99 1021.8 7.6 S 11.4 0.0 0.1
04:18 14.0 13.9 99 1022.0 6.9 S 11.4 0.0 0.1
04:19 14.0 13.9 99 1022.0 6.9 SW 11.4 0.0 0.1
04:20 14.0 13.9 99 1022.0 7.6 SW 11.4 0.0 0.1
04:21 14.0 13.9 99 1021.8 9.2 S 11.4 0.0 0.1
04:22 14.0 13.9 99 1021.9 9.8 S 9.8 0.0 0.1
04:23 14.0 13.9 99 1021.9 9.2 SW 9.8 0.0 0.1
04:24 14.0 13.9 99 1021.9 9.8 SW 9.8 0.0 0.1
04:25 14.0 13.9 99 1021.9 9.8 SW 9.8 0.0 0.1
04:26 14.0 13.9 99 1022.0 12.1 S 12.1 0.0 0.1
04:27 14.0 13.9 99 1022.0 12.1 WNW 12.1 0.0 0.1
04:28 14.0 13.9 99 1022.0 12.1 WNW 12.1 0.0 0.1
04:30 14.0 13.9 99 1022.0 13.0 SW 13.0 0.0 0.1
04:31 14.0 13.9 99 1022.0 6.9 S 13.0 0.0 0.1
04:32 14.0 13.9 99 1022.0 7.6 SW 13.0 0.0 0.1
04:33 14.0 13.9 99 1022.0 6.9 S 13.0 0.0 0.1
04:34 14.0 13.9 99 1022.1 7.6 S 13.0 0.0 0.1
04:35 14.0 13.9 99 1022.0 8.3 SW 13.0 0.0 0.1
04:36 14.0 13.9 99 1021.9 11.4 SW 13.0 0.0 0.1
04:37 14.0 13.9 99 1022.0 10.7 SW 13.0 0.0 0.1
04:38 14.0 13.9 99 1021.9 8.3 SW 13.0 0.0 0.1
04:39 14.0 13.9 99 1022.0 6.9 SW 13.0 0.0 0.1
04:40 14.0 13.9 99 1022.0 10.7 S 11.4 0.0 0.1
04:41 14.0 13.9 99 1022.0 10.7 S 11.4 0.0 0.1
04:42 14.0 13.9 99 1021.8 9.8 SW 11.4 0.0 0.1
04:44 14.0 13.9 99 1022.0 8.3 SE 11.4 0.0 0.1
04:45 14.0 13.9 99 1022.0 10.7 SW 11.4 0.0 0.1
04:46 14.0 13.9 99 1021.9 10.7 SW 11.4 0.0 0.1
04:47 14.0 13.9 99 1022.0 11.4 S 11.4 0.0 0.1
04:48 14.0 13.9 99 1021.8 9.8 S 11.4 0.0 0.1
04:49 14.0 13.9 99 1021.9 13.0 NW 13.0 0.0 0.1
04:50 14.0 13.9 99 1021.8 14.5 SW 14.5 0.0 0.1
04:51 14.0 13.9 99 1021.9 10.7 SW 14.5 0.8 0.1
04:52 14.0 13.9 99 1021.9 12.1 SW 14.5 0.8 0.1
04:53 14.0 13.9 99 1021.7 12.1 SW 14.5 0.8 0.1
04:54 14.0 13.9 99 1021.8 10.7 S 14.5 0.8 0.1
04:55 14.0 13.9 99 1021.9 9.2 SW 14.5 0.8 0.1
04:56 14.0 13.9 99 1021.8 9.8 S 14.5 0.0 0.1
04:58 14.0 13.9 99 1021.8 13.6 S 14.5 0.0 0.1
04:59 14.0 13.9 99 1021.8 13.6 SE 14.5 0.0 0.1
05:00 14.0 13.9 99 1021.8 11.4 SW 14.5 0.0 0.1
05:01 14.0 13.9 99 1021.8 11.4 SW 14.5 0.0 0.1
05:02 13.9 13.8 99 1021.9 9.2 S 14.5 0.0 0.1
05:03 13.9 13.8 99 1021.8 10.7 SW 14.5 0.0 0.1
05:04 14.0 13.9 99 1021.8 6.9 S 14.5 0.0 0.1
05:05 13.9 13.8 99 1022.0 10.7 SW 14.5 0.0 0.1
05:06 13.9 13.8 99 1021.8 12.1 S 14.5 0.0 0.1
05:07 13.9 13.8 99 1021.9 9.8 SE 13.6 0.0 0.1
05:08 13.9 13.8 99 1021.9 8.3 S 13.6 0.0 0.1
05:09 13.9 13.8 99 1021.9 10.7 S 12.1 0.0 0.1
05:10 13.9 13.8 99 1022.0 9.2 S 12.1 0.0 0.1
05:11 13.9 13.8 99 1021.9 10.7 S 12.1 0.0 0.1
05:12 13.9 13.8 99 1021.9 10.7 S 12.1 0.0 0.1
05:14 13.9 13.8 99 1022.0 9.8 SW 13.6 0.0 0.1
05:15 13.9 13.8 99 1021.9 13.6 S 13.6 0.0 0.1
05:16 13.9 13.8 99 1022.1 9.2 SW 13.6 0.0 0.1
05:17 13.9 13.8 99 1021.9 9.2 S 13.6 0.0 0.1
05:18 13.9 13.8 99 1021.9 9.2 SW 13.6 0.0 0.1
05:19 13.9 13.8 99 1021.9 12.1 NNE 13.6 0.0 0.1
05:20 13.9 13.8 99 1021.8 11.4 SW 13.6 0.0 0.1
05:21 13.8 13.7 99 1021.8 7.6 S 13.6 0.0 0.1
05:22 13.9 13.8 99 1021.7 9.8 SW 13.6 0.0 0.1
05:23 13.9 13.8 99 1021.8 11.4 S 13.6 0.0 0.1
05:24 13.9 13.8 99 1021.8 10.7 SW 13.6 0.0 0.1
05:25 13.8 13.7 99 1021.9 11.4 SW 12.1 0.0 0.1
05:26 13.8 13.7 99 1021.9 11.4 SW 12.1 0.0 0.1
05:27 13.8 13.7 99 1022.0 11.4 S 12.1 0.0 0.1
05:29 13.8 13.7 99 1022.0 11.4 S 13.6 0.0 0.1
05:30 13.8 13.7 99 1021.8 7.6 S 13.6 0.0 0.1
05:31 13.8 13.7 99 1021.9 12.1 SW 13.6 0.0 0.1
05:32 13.8 13.7 99 1022.0 10.7 S 13.6 0.0 0.1
05:33 13.8 13.7 99 1022.1 10.7 S 13.6 0.0 0.1
05:34 13.8 13.7 99 1021.9 10.7 S 13.6 0.0 0.1
05:35 13.8 13.7 99 1022.1 8.3 S 13.6 0.0 0.1
05:36 13.8 13.7 99 1022.1 9.2 S 13.6 0.0 0.1
05:37 13.8 13.7 99 1022.1 12.1 S 13.6 0.0 0.1
05:38 13.8 13.7 99 1022.2 11.4 SW 13.0 0.0 0.1
05:39 13.8 13.7 99 1022.0 11.4 S 13.0 0.0 0.1
05:40 13.8 13.7 99 1022.0 11.4 S 13.0 0.0 0.1
05:41 13.8 13.7 99 1022.1 8.3 WSW 12.1 0.0 0.1
05:43 13.8 13.7 99 1022.2 13.6 SE 13.6 0.0 0.1
05:44 13.8 13.7 99 1021.9 12.1 S 13.6 0.0 0.1
05:45 13.8 13.7 99 1022.2 11.4 SW 13.6 0.0 0.1
05:46 13.8 13.7 99 1022.0 10.7 SW 13.6 0.0 0.1
05:47 13.8 13.7 99 1022.0 9.8 S 13.6 0.0 0.1
05:48 13.8 13.7 99 1021.9 9.8 SW 13.6 0.0 0.1
05:49 13.8 13.7 99 1022.0 9.8 SW 13.6 0.0 0.1
05:50 13.8 13.7 99 1021.9 8.3 SE 13.6 0.0 0.1
05:51 13.8 13.7 99 1022.1 10.7 SSW 13.6 0.0 0.1
05:52 13.8 13.7 99 1022.0 8.3 S 13.6 0.0 0.1
05:53 13.8 13.7 99 1022.1 9.2 SW 12.1 0.0 0.1
05:54 13.8 13.7 99 1022.1 9.2 SW 12.1 0.0 0.1
05:55 13.8 13.7 99 1022.0 11.4 SW 11.4 0.0 0.1
05:57 13.8 13.7 99 1022.0 9.2 SE 11.4 0.0 0.1
05:58 13.8 13.7 99 1022.1 9.2 SW 11.4 0.0 0.1
05:59 13.8 13.7 99 1022.0 13.0 S 14.5 0.0 0.1
06:00 13.8 13.7 99 1021.9 10.7 WSW 14.5 0.0 0.1
06:01 13.8 13.7 99 1022.0 11.4 SSW 14.5 0.0 0.1
06:02 13.8 13.7 99 1022.0 12.1 S 14.5 0.0 0.1
06:03 13.8 13.7 99 1022.1 9.2 SW 14.5 0.0 0.1
06:04 13.8 13.7 99 1021.9 13.0 SW 14.5 0.0 0.1
06:05 13.8 13.7 99 1021.9 12.1 SSW 14.5 0.0 0.1
06:06 13.8 13.7 99 1022.0 13.6 SSW 14.5 0.0 0.1
06:07 13.9 13.8 99 1022.0 10.7 W 14.5 0.0 0.1
06:08 13.9 13.8 99 1022.0 10.7 W 14.5 0.0 0.1
06:09 13.9 13.8 99 1021.9 11.4 S 13.6 0.0 0.1
06:11 13.9 13.8 99 1022.0 8.3 SW 13.6 0.0 0.1
06:12 13.9 13.8 99 1021.8 8.3 SE 13.6 0.0 0.1
06:13 13.9 13.8 99 1021.9 9.8 SW 13.6 0.0 0.1
06:14 13.9 13.8 99 1021.9 13.6 S 13.6 0.0 0.1
06:15 13.9 13.8 99 1022.1 9.2 SW 13.6 0.0 0.1
06:16 13.9 13.8 99 1021.9 10.7 SSW 13.6 0.0 0.1
06:17 13.9 13.8 99 1021.9 9.8 NW 13.6 0.0 0.1
06:18 13.9 13.8 99 1022.1 6.9 S 13.6 0.0 0.1
06:19 13.9 13.8 99 1022.0 6.9 SSW 13.6 0.0 0.1
06:20 14.0 13.9 99 1022.0 9.2 SW 13.6 0.0 0.1
06:21 13.9 13.8 99 1021.9 9.8 SW 13.6 0.0 0.1
06:22 14.0 13.9 99 1022.2 10.7 S 13.6 0.0 0.1
06:23 14.0 13.9 99 1021.9 9.2 S 13.6 0.0 0.1
06:24 14.0 13.9 99 1021.9 9.2 S 13.6 0.0 0.1
06:25 14.0 13.9 99 1022.0 7.6 S 10.7 0.0 0.1
06:27 14.0 13.9 99 1022.1 10.7 S 11.4 0.0 0.1
06:28 14.0 13.9 99 1022.1 9.8 SW 11.4 0.0 0.1
06:29 14.0 13.9 99 1022.0 12.1 SW 12.1 0.0 0.1
06:30 14.0 13.9 99 1022.0 8.3 SE 12.1 0.0 0.1
06:31 14.0 13.9 99 1022.0 9.8 SW 12.1 0.0 0.1
06:32 14.0 13.9 99 1021.9 8.3 S 12.1 0.0 0.1
06:33 14.0 13.9 99 1022.1 10.7 S 12.1 0.0 0.1
06:34 14.0 13.9 99 1022.0 9.2 S 12.1 0.0 0.1
06:35 14.0 13.9 99 1022.1 9.2 NE 12.1 0.0 0.1
06:36 14.0 13.9 99 1021.9 8.3 S 12.1 0.0 0.1
06:37 14.0 13.9 99 1022.0 9.2 S 12.1 0.0 0.1
06:38 14.0 13.9 99 1022.0 11.4 S 12.1 0.0 0.1
06:39 14.1 14.0 99 1022.0 10.7 S 12.1 0.0 0.1
06:41 14.1 14.0 99 1021.9 7.6 SW 11.4 0.0 0.1
06:42 14.1 14.0 99 1022.0 11.4 S 11.4 0.0 0.1
06:43 14.1 14.0 99 1022.0 11.4 S 11.4 0.0 0.1
06:44 14.1 14.0 99 1022.0 14.5 S 14.5 0.0 0.1
06:45 14.1 14.0 99 1021.9 10.7 SW 14.5 0.0 0.1
06:46 14.1 14.0 99 1021.9 7.6 S 14.5 0.0 0.1
06:47 14.1 14.0 99 1022.1 11.4 S 14.5 0.0 0.1
06:48 14.1 14.0 99 1022.0 8.3 S 14.5 0.0 0.1
06:49 14.2 14.1 99 1022.0 13.6 SW 14.5 0.0 0.1
06:50 14.2 14.1 99 1022.0 12.1 S 14.5 0.0 0.1
06:51 14.2 14.1 99 1022.0 8.3 SW 14.5 0.0 0.1
06:52 14.2 14.1 99 1022.1 11.4 SSW 14.5 0.0 0.1
06:53 14.2 14.1 99 1022.0 13.0 S 14.5 0.0 0.1
06:55 14.2 14.1 99 1022.1 9.8 S 13.6 0.0 0.1
06:56 14.2 14.1 99 1022.1 6.0 S 13.6 0.0 0.1
06:57 14.2 14.1 99 1022.1 10.7 SSE 13.6 0.0 0.1
06:58 14.2 14.1 99 1022.1 7.6 SW 13.6 0.0 0.1
06:59 14.2 14.1 99 1022.2 12.1 SW 13.6 0.0 0.1
07:00 14.3 14.2 99 1022.1 8.3 S 13.0 0.0 0.1
07:01 14.3 14.2 99 1022.1 11.4 SW 13.0 0.0 0.1
07:02 14.3 14.2 99 1022.2 9.2 SW 13.0 0.0 0.1
07:03 14.3 14.2 99 1022.2 9.8 SW 12.1 0.0 0.1
07:04 14.3 14.2 99 1022.2 10.7 S 12.1 0.0 0.1
07:05 14.3 14.2 99 1022.2 10.7 S 12.1 0.0 0.1
07:06 14.3 14.2 99 1022.1 9.2 SW 12.1 0.0 0.1
07:07 14.3 14.2 99 1022.2 9.8 SE 12.1 0.0 0.1
07:09 14.4 14.3 99 1022.1 8.3 SW 12.1 0.0 0.1
07:10 14.4 14.3 99 1022.1 8.3 SW 11.4 0.0 0.1
07:11 14.4 14.3 99 1022.1 9.8 S 11.4 0.0 0.1
07:12 14.4 14.3 99 1022.1 11.4 SW 11.4 0.0 0.1
07:13 14.4 14.3 99 1022.1 10.7 S 11.4 0.0 0.1
07:14 14.4 14.3 99 1022.1 9.8 SW 11.4 0.0 0.1
07:15 14.4 14.3 99 1022.2 11.4 SSW 11.4 0.0 0.1
07:16 14.5 14.4 99 1022.1 9.2 S 11.4 0.0 0.1
07:17 14.5 14.4 99 1021.9 10.7 S 11.4 0.0 0.1
07:18 14.5 14.4 99 1022.1 13.0 NW 13.0 0.0 0.1
07:19 14.5 14.4 99 1022.2 15.2 SW 15.2 0.0 0.1
07:20 14.5 14.4 99 1022.1 14.5 SW 15.2 0.0 0.1
07:21 14.5 14.4 99 1022.0 8.3 S 15.2 0.0 0.1
07:23 14.5 14.4 99 1022.0 13.0 SE 15.2 0.0 0.1
07:24 14.5 14.4 99 1022.0 11.4 SE 15.2 0.0 0.1
07:25 14.5 14.4 99 1022.0 14.5 S 15.2 0.0 0.1
07:26 14.5 14.4 99 1021.9 8.3 S 15.2 0.8 0.2
07:27 14.5 14.4 99 1022.0 9.8 SW 15.2 0.8 0.2
07:28 14.5 14.4 99 1022.0 12.1 SW 15.2 0.8 0.2
07:29 14.6 14.5 99 1021.9 9.2 S 14.5 0.8 0.2
07:30 14.6 14.5 99 1021.9 13.0 S 14.5 0.8 0.2
07:31 14.5 14.4 99 1021.9 12.1 S 14.5 0.0 0.2
07:32 14.6 14.5 99 1022.1 11.4 SE 14.5 0.0 0.2
07:33 14.6 14.5 99 1021.9 13.0 SW 14.5 0.0 0.2
07:34 14.6 14.5 99 1021.9 12.1 S 14.5 0.0 0.2
07:35 14.5 14.4 99 1022.0 13.0 S 13.0 0.0 0.2
07:36 14.6 14.5 99 1022.0 9.8 SW 13.0 0.0 0.2
07:38 14.6 14.5 99 1022.0 9.8 S 13.0 0.0 0.2
07:39 14.6 14.5 99 1022.0 12.1 S 13.0 0.0 0.2
07:40 14.6 14.5 99 1021.9 8.3 SW 13.0 0.0 0.2
07:41 14.7 14.6 99 1022.0 12.1 S 13.6 0.0 0.2
07:42 14.7 14.6 99 1022.0 9.8 SE 13.6 0.0 0.2
07:43 14.7 14.6 99 1022.0 12.1 WSW 13.6 0.0 0.2
07:44 14.7 14.6 99 1022.1 11.4 SSW 13.6 0.0 0.2
07:45 14.7 14.6 99 1022.1 10.7 S 13.6 0.0 0.2
07:46 14.7 14.6 99 1022.0 10.7 S 13.6 0.0 0.2
07:47 14.7 14.6 99 1021.9 13.0 S 13.6 0.0 0.2
07:48 14.7 14.6 99 1021.9 13.0 S 13.6 0.0 0.2
07:49 14.7 14.6 99 1022.2 12.1 S 13.6 0.0 0.2
07:50 14.7 14.6 99 1022.1 15.2 WSW 15.2 0.0 0.2
07:52 14.7 14.6 99 1022.1 11.4 S 15.2 0.0 0.2
07:53 14.8 14.7 99 1022.1 10.7 SW 15.2 0.0 0.2
07:54 14.8 14.7 99 1022.0 9.8 S 15.2 0.0 0.2
07:55 14.8 14.7 99 1022.1 13.0 S 15.2 0.0 0.2
07:56 14.8 14.7 99 1022.2 12.1 S 15.2 0.0 0.2
07:57 14.8 14.7 99 1022.2 9.2 SW 15.2 0.0 0.2
07:58 14.8 14.7 99 1022.1 9.8 SW 15.2 0.0 0.2
07:59 14.8 14.7 99 1022.1 11.4 SW 15.2 0.0 0.2
08:00 14.8 14.7 99 1022.1 12.1 SW 13.0 0.0 0.2
08:01 14.8 14.7 99 1022.2 12.1 SW 13.0 0.0 0.2
08:02 14.8 14.7 99 1022.1 10.7 SW 13.0 0.0 0.2
08:03 14.8 14.7 99 1022.3 11.4 W 13.6 0.0 0.2
08:04 14.8 14.7 99 1022.1 12.1 SE 13.6 0.0 0.2
08:05 14.8 14.7 99 1022.1 10.7 SW 13.6 0.0 0.2
08:06 14.8 14.7 99 1022.2 9.8 S 13.6 0.0 0.2
08:07 14.8 14.7 99 1022.1 13.0 SW 13.6 0.0 0.2
08:08 14.8 14.7 99 1022.2 12.1 SW 13.6 0.0 0.2
08:09 14.8 14.7 99 1022.2 12.1 SW 13.6 0.0 0.2
08:10 14.8 14.7 99 1022.2 8.3 NW 13.6 0.0 0.2
08:12 14.9 14.8 99 1022.0 9.2 NW 13.6 0.0 0.2
08:13 14.9 14.8 99 1022.0 10.7 S 13.6 0.0 0.2
08:14 14.9 14.8 99 1022.2 9.8 SE 13.6 0.0 0.2
08:15 14.9 14.8 99 1022.0 10.7 S 13.6 0.0 0.2
08:16 14.9 14.8 99 1021.9 9.2 S 13.6 0.0 0.2
08:17 14.9 14.8 99 1022.1 11.4 SW 13.6 0.0 0.2
08:18 14.9 14.8 99 1022.0 11.4 SW 13.6 0.0 0.2
08:19 15.0 14.9 99 1022.0 10.7 S 13.6 0.0 0.2
08:20 15.0 14.9 99 1022.1 8.3 SW 13.6 0.0 0.2
08:21 15.0 14.9 99 1022.1 9.8 S 13.0 0.0 0.2
08:22 15.0 14.9 99 1022.1 9.8 S 13.0 0.0 0.2
08:23 15.0 14.9 99 1022.1 12.1 S 13.0 0.0 0.2
08:24 15.1 15.0 99 1022.2 9.8 SW 13.0 0.0 0.2
08:26 15.1 15.0 99 1022.3 13.0 SW 13.0 0.0 0.2
08:27 15.1 15.0 99 1022.3 7.6 S 13.0 0.0 0.2
08:28 15.1 15.0 99 1022.2 8.3 SE 13.0 0.0 0.2
08:29 15.1 15.0 99 1022.3 12.1 S 13.0 0.0 0.2
08:30 15.1 15.0 99 1022.3 12.1 S 13.0 0.0 0.2
08:31 15.1 15.0 99 1022.3 11.4 S 13.0 0.0 0.2
08:32 15.1 15.0 99 1022.2 9.8 S 14.5 0.0 0.2
08:33 15.1 15.0 99 1022.4 10.7 SW 14.5 0.0 0.2
08:34 15.1 15.0 99 1022.2 11.4 SW 14.5 0.0 0.2
08:35 15.1 15.0 99 1022.3 9.2 S 14.5 0.0 0.2
08:36 15.1 15.0 99 1022.2 8.3 S 14.5 0.0 0.2
08:37 15.2 15.1 99 1022.3 8.3 WSW 14.5 0.0 0.2
08:38 15.2 15.1 99 1022.3 13.0 S 14.5 0.0 0.2
08:40 15.2 15.1 99 1022.3 8.3 SW 14.5 0.0 0.2
08:41 15.2 15.1 99 1022.1 8.3 S 14.5 0.0 0.2
08:42 15.2 15.1 99 1022.2 10.7 S 13.0 0.0 0.2
08:43 15.2 15.1 99 1022.3 13.6 WSW 13.6 0.0 0.2
08:44 15.2 15.1 99 1022.2 9.8 S 13.6 0.0 0.2
08:45 15.2 15.1 99 1022.2 8.3 S 13.6 0.0 0.2
08:46 15.2 15.1 99 1022.3 13.6 SW 13.6 0.0 0.2
08:47 15.2 15.1 99 1022.3 13.0 SW 13.6 0.0 0.2
08:48 15.3 15.2 99 1022.3 10.7 SW 13.6 0.0 0.2
08:49 15.3 15.2 99 1022.3 12.1 S 13.6 0.0 0.2
08:50 15.3 15.2 99 1022.3 10.7 SW 13.6 0.0 0.2
08:51 15.3 15.2 99 1022.3 9.2 SW 13.6 0.0 0.2
08:52 15.3 15.2 99 1022.4 9.2 S 13.6 0.0 0.2
08:54 15.4 15.3 99 1022.3 7.6 S 13.6 0.0 0.2
08:55 15.4 15.3 99 1022.3 11.4 S 13.6 0.0 0.2
08:56 15.4 15.3 99 1022.3 11.4 SW 13.0 0.0 0.2
08:57 15.4 15.3 99 1022.4 9.8 SW 13.0 0.0 0.2
08:58 15.4 15.3 99 1022.3 12.1 SW 12.1 0.0 0.2
08:59 15.4 15.3 99 1022.2 9.2 SW 12.1 0.0 0.2
09:00 15.4 15.3 99 1022.3 9.8 SW 12.1 0.0 0.2
09:01 15.4 15.3 99 1022.4 9.8 SW 12.1 0.0 0.2
09:02 15.4 15.3 99 1022.3 12.1 SW 12.1 0.0 0.2
09:03 15.3 15.2 99 1022.3 12.1 SW 12.1 0.0 0.2
09:04 15.3 15.2 99 1022.3 11.4 S 13.0 0.0 0.2
09:05 15.3 15.2 99 1022.2 8.3 SE 13.0 0.0 0.2
09:06 15.3 15.2 99 1022.3 9.2 SW 13.0 0.0 0.2
09:08 15.2 15.1 99 1022.2 9.8 S 13.0 0.0 0.2
09:09 15.3 15.2 99 1022.3 9.2 SW 13.0 0.0 0.2
09:10 15.2 15.1 99 1022.3 8.3 S 13.0 0.0 0.2
09:11 15.2 15.1 99 1022.3 6.9 S 13.0 0.0 0.2
09:12 15.3 15.2 99 1022.3 8.3 S 13.0 0.0 0.2
09:13 15.3 15.2 99 1022.3 9.2 SW 13.0 0.0 0.2
09:14 15.3 15.2 99 1022.3 8.3 SW 11.4 0.0 0.2
09:15 15.3 15.2 99 1022.4 9.2 S 10.7 0.0 0.2
09:16 15.3 15.2 99 1022.3 7.6 S 11.4 0.0 0.2
09:17 15.3 15.2 99 1022.3 9.2 SSW 11.4 0.0 0.2
09:18 15.3 15.2 99 1022.3 7.6 S 11.4 0.0 0.2
09:19 15.3 15.2 99 1022.3 11.4 SW 11.4 0.0 0.2
09:20 15.3 15.2 99 1022.3 14.5 SW 14.5 0.0 0.2
09:21 15.3 15.2 99 1022.2 11.4 SW 14.5 0.0 0.2
09:23 15.3 15.2 99 1022.3 8.3 W 14.5 0.0 0.2
09:24 15.3 15.2 99 1022.3 9.2 S 14.5 0.0 0.2
09:25 15.3 15.2 99 1022.3 6.0 SW 14.5 0.0 0.2
09:26 15.3 15.2 99 1022.4 9.8 S 14.5 0.0 0.2
09:27 15.3 15.2 99 1022.3 10.7 S 14.5 0.0 0.2
09:28 15.3 15.2 99 1022.3 9.8 SE 14.5 0.0 0.2
09:29 15.3 15.2 99 1022.3 9.8 SE 14.5 0.0 0.2
09:30 15.3 15.2 99 1022.3 9.8 S 14.5 0.0 0.2
09:31 15.3 15.2 99 1022.3 8.3 S 13.0 0.0 0.2
09:32 15.3 15.2 99 1022.3 9.8 S 13.0 0.0 0.2
09:33 15.3 15.2 99 1022.4 8.3 SW 13.0 0.0 0.2
09:34 15.3 15.2 99 1022.3 8.3 SW 13.0 0.0 0.2
09:36 15.3 15.2 99 1022.3 9.2 S 13.0 0.0 0.2
09:37 15.3 15.2 99 1022.5 11.4 SW 13.0 0.0 0.2
09:38 15.3 15.2 99 1022.4 8.3 S 12.1 0.0 0.2
09:39 15.3 15.2 99 1022.4 8.3 S 12.1 0.0 0.2
09:40 15.3 15.2 99 1022.3 9.8 NNE 12.1 0.0 0.2
09:41 15.3 15.2 99 1022.3 9.2 SW 12.1 0.0 0.2
09:42 15.3 15.2 99 1022.1 8.3 SW 12.1 0.0 0.2
09:43 15.3 15.2 99 1022.3 9.8 S 12.1 0.0 0.2
09:44 15.3 15.2 99 1022.3 8.3 NW 12.1 0.0 0.2
09:45 15.3 15.2 99 1022.2 6.9 S 12.1 0.0 0.2
09:46 15.3 15.2 99 1022.3 6.9 SE 12.1 0.0 0.2
09:47 15.4 15.3 99 1022.3 7.6 SW 12.1 0.0 0.2
09:48 15.4 15.3 99 1022.2 9.8 SE 10.7 0.0 0.2
09:49 15.3 15.2 99 1022.4 8.3 S 10.7 0.0 0.2
09:51 15.4 15.3 99 1022.3 9.2 SW 10.7 0.0 0.2
09:52 15.4 15.3 99 1022.3 9.2 S 10.7 0.0 0.2
09:53 15.4 15.3 99 1022.1 9.2 SW 10.7 0.0 0.2
09:54 15.4 15.3 99 1022.3 9.2 S 9.8 0.0 0.2
09:55 15.4 15.3 99 1022.2 8.3 S 9.8 0.0 0.2
09:56 15.4 15.3 99 1022.1 6.0 SW 9.8 0.0 0.2
09:57 15.4 15.3 99 1022.1 8.3 S 9.8 0.0 0.2
09:58 15.4 15.3 99 1022.4 9.2 S 9.8 0.0 0.2
09:59 15.4 15.3 99 1022.3 9.8 S 9.8 0.0 0.2
10:00 15.4 15.3 99 1022.3 12.1 SW 12.1 0.0 0.2
10:01 15.4 15.3 99 1022.2 11.4 SE 12.1 0.0 0.2
10:02 15.3 15.2 99 1022.3 8.3 WSW 12.1 0.0 0.2
10:03 15.4 15.3 99 1022.3 7.6 WSW 12.1 0.0 0.2
10:05 15.3 15.2 99 1022.2 9.2 S 12.1 0.0 0.2
10:06 15.3 15.2 99 1022.2 6.9 S 12.1 0.0 0.2
10:07 15.6 15.5 99 1022.3 9.2 S 12.1 0.0 0.2
10:08 15.6 15.5 99 1022.3 9.2 S 12.1 0.0 0.2
10:09 15.4 15.3 99 1022.3 12.1 S 12.1 0.0 0.2
10:10 15.4 15.3 99 1022.2 9.8 S 12.1 0.0 0.2
10:11 15.4 15.3 99 1022.3 9.8 S 12.1 0.0 0.2
10:12 15.4 15.3 99 1022.2 9.8 NW 12.1 0.0 0.2
10:13 15.4 15.3 99 1022.3 9.8 SW 12.1 0.0 0.2
10:14 15.4 15.3 99 1022.3 9.2 SW 12.1 0.0 0.2
10:15 15.4 15.3 99 1022.2 9.8 SW 12.1 0.0 0.2
10:16 15.4 15.3 99 1022.3 9.2 S 12.1 0.0 0.2
10:17 15.3 15.2 99 1022.2 7.6 SSW 12.1 0.0 0.2
10:18 15.4 15.3 99 1022.3 9.8 S 12.1 0.0 0.2
10:20 15.4 15.3 99 1022.2 10.7 S 10.7 0.0 0.2
10:21 15.4 15.3 99 1022.2 11.4 S 11.4 0.0 0.2
10:22 15.3 15.2 99 1022.2 9.2 S 11.4 0.0 0.2
10:23 15.3 15.2 99 1022.2 9.2 S 11.4 0.0 0.2
10:24 15.3 15.2 99 1022.2 9.8 SW 11.4 0.0 0.2
10:25 15.3 15.2 99 1022.2 10.7 S 11.4 0.0 0.2
10:26 15.3 15.2 99 1022.3 8.3 S 11.4 0.0 0.2
10:27 15.3 15.2 99 1022.3 8.3 SW 11.4 0.0 0.2
10:28 15.3 15.2 99 1022.3 10.7 S 11.4 0.0 0.2
10:29 15.4 15.3 99 1022.2 10.7 SSE 11.4 0.0 0.2
10:30 15.3 15.2 99 1022.3 8.3 S 11.4 0.0 0.2
10:31 15.3 15.2 99 1022.2 8.3 S 12.1 0.0 0.2
10:32 15.3 15.2 99 1022.2 8.3 S 12.1 0.0 0.2
10:34 15.3 15.2 99 1022.2 8.3 S 12.1 0.0 0.2
10:35 15.3 15.2 99 1022.2 8.3 SE 12.1 0.0 0.2
10:36 15.4 15.3 99 1022.3 7.6 S 12.1 0.0 0.2
10:37 15.4 15.3 99 1022.3 9.2 SW 12.1 0.0 0.2
10:38 15.4 15.3 99 1022.3 6.9 SW 12.1 0.0 0.2
10:39 15.4 15.3 99 1022.2 10.7 SW 12.1 0.0 0.2
10:40 15.3 15.2 99 1022.2 9.8 SW 12.1 0.0 0.2
10:41 15.3 15.2 99 1022.2 9.2 SW 10.7 0.0 0.2
10:42 15.3 15.2 99 1022.2 10.7 SW 10.7 0.0 0.2
10:43 15.3 15.2 99 1022.2 8.3 SW 10.7 0.0 0.2
10:44 15.4 15.3 99 1022.2 8.3 S 10.7 0.0 0.2
10:45 15.4 15.3 99 1022.1 8.3 SE 10.7 0.0 0.2
10:46 15.4 15.3 99 1022.3 9.8 S 10.7 0.0 0.2
10:47 15.4 15.3 99 1022.2 8.3 S 10.7 0.0 0.2
10:49 15.4 15.3 99 1022.3 9.8 S 10.7 0.0 0.2
10:50 15.5 15.4 99 1022.2 6.9 WSW 10.7 0.0 0.2
10:51 15.5 15.4 99 1022.2 6.9 WSW 10.7 0.0 0.2
10:52 15.5 15.4 99 1022.2 8.3 S 10.7 0.0 0.2
10:53 15.5 15.4 99 1022.3 9.8 S 9.8 0.0 0.2
10:54 15.5 15.4 99 1022.2 8.3 SW 9.8 0.0 0.2
10:55 15.5 15.4 99 1022.2 7.6 SW 9.8 0.0 0.2
10:56 15.5 15.4 99 1022.2 7.6 SW 9.8 0.0 0.2
10:57 15.5 15.4 99 1022.3 8.3 S 9.8 0.0 0.2
10:58 15.5 15.4 99 1022.3 9.2 SW 9.8 0.0 0.2
10:59 15.5 15.4 99 1022.3 9.2 SSW 9.8 0.0 0.2
11:00 15.6 15.5 99 1022.2 6.0 SW 9.8 0.0 0.2
11:01 15.6 15.5 99 1022.2 11.4 W 11.4 0.0 0.2
11:03 15.6 15.5 99 1022.2 9.8 SSW 11.4 0.0 0.2
11:04 15.6 15.5 99 1022.3 6.9 S 11.4 0.0 0.2
11:05 15.6 15.5 99 1022.3 7.6 SW 11.4 0.0 0.2
11:06 15.6 15.5 99 1022.3 7.6 SW 11.4 0.0 0.2
11:07 15.6 15.5 99 1022.3 6.0 SSW 11.4 0.0 0.2
11:08 15.6 15.5 99 1022.1 11.4 SW 11.4 0.0 0.2
11:09 15.6 15.5 99 1022.3 10.7 SSW 11.4 0.0 0.2
11:10 15.6 15.5 99 1022.4 10.7 N 11.4 0.0 0.2
11:11 15.6 15.5 99 1022.4 9.8 SW 11.4 0.0 0.2
11:12 15.6 15.5 99 1022.3 8.3 S 11.4 0.0 0.2
11:13 15.6 15.5 99 1022.3 10.7 S 11.4 0.0 0.2
11:14 15.6 15.5 99 1022.2 8.3 SW 11.4 0.0 0.2
11:15 15.6 15.5 99 1022.2 7.6 SW 11.4 0.0 0.2
11:16 15.6 15.5 99 1022.3 6.9 SW 11.4 0.0 0.2
11:18 15.6 15.5 99 1022.3 9.8 SSW 11.4 0.0 0.2
11:19 15.7 15.6 99 1022.3 6.9 WSW 11.4 0.0 0.2
11:20 15.7 15.6 99 1022.3 6.9 WSW 11.4 0.0 0.2
11:21 15.7 15.6 99 1022.3 9.8 N 11.4 0.0 0.2
11:22 15.7 15.6 99 1022.3 9.8 S 11.4 0.0 0.2
11:23 15.7 15.6 99 1022.2 8.3 S 11.4 0.0 0.2
11:24 15.7 15.6 99 1022.3 10.7 SSW 11.4 0.0 0.2
11:25 15.8 15.7 99 1022.3 8.3 S 11.4 0.0 0.2
11:26 15.8 15.7 99 1022.3 9.2 S 11.4 0.0 0.2
11:27 15.8 15.7 99 1022.2 8.3 S 11.4 0.0 0.2
11:28 15.8 15.7 99 1022.4 8.3 W 10.7 0.0 0.2
11:29 16.1 16.0 99 1022.3 9.8 SW 10.7 0.0 0.2
11:30 15.8 15.7 99 1022.3 12.1 S 12.1 0.0 0.2
11:32 15.8 15.7 99 1022.3 11.4 S 12.1 0.0 0.2
11:33 15.8 15.7 99 1022.3 8.3 S 12.1 0.0 0.2
11:34 15.8 15.7 99 1022.3 8.3 S 12.1 0.0 0.2
11:35 15.8 15.7 99 1022.4 8.3 WSW 12.1 0.0 0.2
11:36 15.8 15.7 99 1022.4 10.7 S 12.1 0.0 0.2
11:37 15.8 15.7 99 1022.4 9.2 S 12.1 0.0 0.2
11:38 15.8 15.7 99 1022.4 7.6 NW 12.1 0.0 0.2
11:39 15.8 15.7 99 1022.3 9.8 SW 12.1 0.0 0.2
11:40 15.9 15.8 99 1022.5 10.7 S 12.1 0.0 0.2
11:41 15.9 15.8 99 1022.4 11.4 S 12.1 0.0 0.2
11:42 15.8 15.7 99 1022.5 9.8 SE 12.1 0.0 0.2
11:43 15.9 15.8 99 1022.5 8.3 SE 12.1 0.0 0.2
11:44 15.9 15.8 99 1022.5 6.9 SSW 12.1 0.0 0.2
11:46 15.9 15.8 99 1022.5 9.8 S 11.4 0.0 0.2
11:47 15.9 15.8 99 1022.4 12.1 S 12.1 0.0 0.2
11:48 15.9 15.8 99 1022.5 13.0 S 13.0 0.0 0.2
11:49 15.9 15.8 99 1022.4 9.2 W 13.0 0.0 0.2
11:50 15.8 15.7 99 1022.5 7.6 S 13.0 0.0 0.2
11:51 15.9 15.8 99 1022.4 6.0 S 13.0 0.0 0.2
11:52 15.9 15.8 99 1022.4 6.9 S 13.0 0.0 0.2
11:53 15.9 15.8 99 1022.5 9.2 S 13.0 0.0 0.2
11:54 15.9 15.8 99 1022.4 8.3 SSW 13.0 0.0 0.2
11:55 16.0 15.9 99 1022.4 10.7 S 13.0 0.0 0.2
11:56 16.0 15.9 99 1022.4 9.8 N 13.0 0.0 0.2
11:57 16.0 15.9 99 1022.5 12.1 N 13.0 0.0 0.2
11:58 16.0 15.9 99 1022.4 8.3 SSW 12.1 0.0 0.2
11:59 16.0 15.9 99 1022.4 10.7 SSW 12.1 0.0 0.2
12:01 16.0 15.9 99 1022.5 8.3 N 12.1 0.0 0.2
12:02 16.0 15.9 99 1022.3 9.2 S 13.0 0.0 0.2
12:03 16.0 15.9 99 1022.3 9.2 S 13.0 0.0 0.2
12:04 15.9 15.8 99 1022.3 10.7 S 13.0 0.0 0.2
12:05 15.9 15.8 99 1022.4 13.0 S 13.0 0.0 0.2
12:06 15.9 15.8 99 1022.4 13.0 S 13.0 0.0 0.2
12:07 15.9 15.8 99 1022.4 9.8 S 13.0 0.0 0.2
12:08 15.9 15.8 99 1022.5 10.7 SW 13.0 0.0 0.2
12:09 15.9 15.8 99 1022.7 7.6 S 13.0 0.0 0.2
12:10 15.9 15.8 99 1022.6 8.3 WNW 13.0 0.0 0.2
12:11 15.9 15.8 99 1022.6 10.7 S 13.0 0.0 0.2
12:12 15.9 15.8 99 1022.6 10.7 SE 13.0 0.0 0.2
12:13 15.9 15.8 99 1022.5 9.2 S 13.0 0.0 0.2
12:14 15.9 15.8 99 1022.6 9.2 S 13.0 0.0 0.2
12:16 15.9 15.8 99 1022.6 10.7 S 11.4 0.0 0.2
12:17 15.9 15.8 99 1022.6 9.2 S 11.4 0.0 0.2
12:18 15.9 15.8 99 1022.6 7.6 S 10.7 0.0 0.2
12:19 15.9 15.8 99 1022.6 9.2 S 10.7 0.0 0.2
12:20 15.9 15.8 99 1022.6 7.6 S 10.7 0.0 0.2
12:21 15.9 15.8 99 1022.7 10.7 N 10.7 0.0 0.2
12:22 15.9 15.8 99 1022.6 6.9 S 10.7 0.0 0.2
12:23 15.9 15.8 99 1022.7 6.9 S 10.7 0.0 0.2
12:24 16.0 15.9 99 1022.5 10.7 N 10.7 0.0 0.2
12:25 16.0 15.9 99 1022.5 9.8 S 10.7 0.0 0.2
12:26 16.0 15.9 99 1022.6 6.9 S 10.7 0.0 0.2
12:27 16.0 15.9 99 1022.7 9.2 S 10.7 0.0 0.2
12:28 16.0 15.9 99 1022.5 9.8 S 10.7 0.0 0.2
12:29 16.0 15.9 99 1022.6 10.7 S 10.7 0.0 0.2
12:31 16.0 15.9 99 1022.6 8.3 WNW 11.4 0.0 0.2
12:32 16.0 15.9 99 1022.7 9.2 N 11.4 0.0 0.2
12:33 16.0 15.9 99 1022.6 9.8 N 11.4 0.0 0.2
12:34 16.0 15.9 99 1022.5 6.9 SW 11.4 0.0 0.2
12:35 16.0 15.9 99 1022.6 6.9 N 11.4 0.0 0.2
12:36 16.0 15.9 99 1022.6 8.3 N 11.4 0.0 0.2
12:37 16.0 15.9 99 1022.4 8.3 N 11.4 0.0 0.2
12:38 16.1 16.0 99 1022.6 12.1 N 12.1 0.0 0.2
12:39 16.1 16.0 99 1022.6 10.7 S 12.1 0.0 0.2
12:40 16.1 16.0 99 1022.6 11.4 S 12.1 0.0 0.2
12:41 16.1 16.0 99 1022.5 9.2 SW 12.1 0.0 0.2
12:42 16.1 16.0 99 1022.5 9.2 S 12.1 0.0 0.2
12:43 16.1 16.0 99 1022.5 9.2 N 12.1 0.0 0.2
12:44 16.1 16.0 99 1022.6 8.3 S 12.1 0.0 0.2
12:46 16.1 16.0 99 1022.4 8.3 N 12.1 0.0 0.2
12:47 16.1 16.0 99 1022.4 10.7 SW 12.1 0.0 0.2
12:48 16.1 16.0 99 1022.5 9.8 SW 12.1 0.0 0.2
12:49 16.1 16.0 99 1022.5 9.8 WSW 11.4 0.0 0.2
12:50 16.1 16.0 99 1022.6 6.0 S 11.4 0.0 0.2
12:51 16.2 16.1 99 1022.5 10.7 SE 10.7 0.0 0.2
12:52 16.2 16.1 99 1022.5 8.3 WNW 10.7 0.0 0.2
12:53 16.2 16.1 99 1022.5 8.3 S 10.7 0.0 0.2
12:54 16.2 16.1 99 1022.5 7.6 S 10.7 0.0 0.2
12:55 16.2 16.1 99 1022.6 10.7 N 11.4 0.0 0.2
12:56 16.2 16.1 99 1022.5 9.2 S 11.4 0.0 0.2
12:57 16.2 16.1 99 1022.4 5.4 S 11.4 0.0 0.2
12:58 16.3 16.2 99 1022.5 6.9 N 11.4 0.0 0.2
12:59 16.3 16.2 99 1022.4 6.9 SW 11.4 0.0 0.2
13:00 16.3 16.2 99 1022.5 8.3 S 11.4 0.0 0.2
13:01 16.3 16.2 99 1022.4 8.3 S 11.4 0.0 0.2
13:02 16.3 16.2 99 1022.3 10.7 N 11.4 0.0 0.2
13:04 16.3 16.2 99 1022.4 7.6 S 11.4 0.0 0.2
13:05 16.4 16.3 99 1022.4 9.2 SSW 10.7 0.0 0.2
13:06 16.4 16.3 99 1022.5 9.8 SSW 10.7 0.0 0.2
13:07 16.4 16.3 99 1022.5 9.8 W 10.7 0.0 0.2
13:08 16.4 16.3 99 1022.5 9.8 W 10.7 0.0 0.2
13:09 16.4 16.3 99 1022.4 10.7 WSW 11.4 0.0 0.2
13:10 16.4 16.3 99 1022.3 11.4 WSW 11.4 0.0 0.2
13:11 16.4 16.3 99 1022.5 8.3 WNW 11.4 0.0 0.2
13:12 16.4 16.3 99 1022.4 8.3 N 11.4 0.0 0.2
13:13 16.4 16.3 99 1022.4 8.3 N 11.4 0.0 0.2
13:14 16.5 16.4 99 1022.4 8.3 W 11.4 0.0 0.2
13:15 16.5 16.4 99 1022.3 10.7 N 11.4 0.0 0.2
13:16 16.5 16.4 99 1022.3 8.3 S 11.4 0.0 0.2
13:17 16.5 16.4 99 1022.4 9.2 WSW 11.4 0.0 0.2
13:19 16.5 16.4 99 1022.4 9.2 S 11.4 0.0 0.2
13:20 16.5 16.4 99 1022.4 9.2 SSW 10.7 0.0 0.2
13:21 16.5 16.4 99 1022.5 8.3 SSW 10.7 0.0 0.2
13:22 16.5 16.4 99 1022.4 8.3 N 10.7 0.0 0.2
13:23 16.5 16.4 99 1022.4 8.3 N 10.7 0.0 0.2
13:24 16.5 16.4 99 1022.6 10.7 S 10.7 0.0 0.2
13:25 16.5 16.4 99 1022.3 9.8 SSE 10.7 0.0 0.2
13:26 16.5 16.4 99 1022.3 6.9 SSE 10.7 0.0 0.2
13:27 16.5 16.4 99 1022.3 9.8 N 10.7 0.0 0.2
13:28 16.5 16.4 99 1022.3 8.3 WSW 10.7 0.0 0.2
13:29 16.5 16.4 99 1022.4 7.6 S 10.7 0.0 0.2
13:30 16.5 16.4 99 1022.4 12.1 N 12.1 0.0 0.2
13:31 16.5 16.4 99 1022.4 12.1 SW 12.1 0.0 0.2
13:32 16.4 16.3 99 1022.4 9.8 SW 12.1 0.0 0.2
13:34 16.3 16.2 99 1022.3 9.8 SSW 12.1 0.0 0.2
13:35 16.3 16.2 99 1022.3 9.2 S 12.1 0.0 0.2
13:36 16.3 16.2 99 1022.3 9.2 S 12.1 0.0 0.2
13:37 16.3 16.2 99 1022.3 9.2 S 12.1 0.0 0.2
13:38 16.3 16.2 99 1022.4 7.6 S 12.1 0.0 0.2
13:39 16.3 16.2 99 1022.4 11.4 N 12.1 0.0 0.2
13:40 16.3 16.2 99 1022.4 9.8 S 12.1 0.0 0.2
13:41 16.3 16.2 99 1022.4 7.6 S 12.1 0.0 0.2
13:42 16.3 16.2 99 1022.4 8.3 S 11.4 0.0 0.2
13:43 16.3 16.2 99 1022.5 9.8 S 11.4 0.0 0.2
13:44 16.3 16.2 99 1022.5 9.2 SE 11.4 0.0 0.2
13:45 16.2 16.1 99 1022.4 7.6 N 11.4 0.0 0.2
13:46 16.2 16.1 99 1022.5 9.2 N 11.4 0.0 0.2
13:47 16.2 16.1 99 1022.4 8.3 S 11.4 0.0 0.2
13:49 16.2 16.1 99 1022.3 11.4 S 11.4 0.0 0.2
13:50 16.2 16.1 99 1022.4 7.6 S 11.4 0.0 0.2
13:51 16.2 16.1 99 1022.4 7.6 S 11.4 0.0 0.2
13:52 16.2 16.1 99 1022.3 7.6 S 11.4 0.0 0.2
13:53 16.2 16.1 99 1022.5 12.1 S 12.1 0.0 0.2
13:54 16.2 16.1 99 1022.5 11.4 NNE 12.1 0.0 0.2
13:55 16.1 16.0 99 1022.4 8.3 SW 12.1 0.0 0.2
13:56 16.1 16.0 99 1022.3 9.2 SW 12.1 0.0 0.2
13:57 16.1 16.0 99 1022.5 9.8 S 12.1 0.0 0.2
13:58 16.1 16.0 99 1022.6 7.6 S 12.1 0.0 0.2
13:59 16.1 16.0 99 1022.4 6.9 WSW 12.1 0.0 0.2
14:00 16.2 16.1 99 1022.4 9.2 SE 12.1 0.0 0.2
14:01 16.2 16.1 99 1022.4 9.8 SE 12.1 0.0 0.2
14:03 16.1 16.0 99 1022.5 10.7 S 11.4 0.0 0.2
14:04 16.1 16.0 99 1022.5 8.3 S 10.7 0.0 0.2
14:05 16.1 16.0 99 1022.5 9.8 SSW 10.7 0.0 0.2
14:06 16.1 16.0 99 1022.5 9.8 SSW 10.7 0.0 0.2
14:07 16.1 16.0 99 1022.5 7.6 WSW 10.7 0.0 0.2
14:08 16.1 16.0 99 1022.5 10.7 SE 10.7 0.0 0.2
14:09 16.0 15.9 99 1022.6 9.8 N 12.1 0.0 0.2
14:10 16.0 15.9 99 1022.5 9.2 NW 12.1 0.0 0.2
14:11 16.0 15.9 99 1022.5 6.9 S 12.1 0.0 0.2
14:12 16.0 15.9 99 1022.4 4.5 S 12.1 0.0 0.2
14:13 16.1 16.0 99 1022.4 6.0 N 12.1 0.0 0.2
14:14 16.0 15.9 99 1022.4 5.4 SSW 12.1 0.0 0.2
14:15 16.1 16.0 99 1022.4 4.5 WSW 12.1 0.0 0.2
14:16 16.1 16.0 99 1022.3 3.8 S 12.1 0.0 0.2
14:18 16.1 16.0 99 1022.4 6.9 WSW 9.8 0.0 0.2
14:19 16.1 16.0 99 1022.3 7.6 S 9.2 0.0 0.2
14:20 16.1 16.0 99 1022.3 7.6 S 9.2 0.0 0.2
14:21 16.1 16.0 99 1022.4 7.6 WSW 7.6 0.0 0.2
14:22 16.1 16.0 99 1022.5 11.4 WSW 11.4 0.0 0.2
14:23 16.1 16.0 99 1022.4 9.2 S 11.4 0.0 0.2
14:24 16.1 16.0 99 1022.4 5.4 WSW 11.4 0.0 0.2
14:25 16.1 16.0 99 1022.5 10.7 N 11.4 0.0 0.2
14:26 16.1 16.0 99 1022.5 9.2 WSW 11.4 0.0 0.2
14:27 16.2 16.1 99 1022.4 6.9 SSW 11.4 0.0 0.2
14:28 16.1 16.0 99 1022.4 9.2 S 11.4 0.0 0.2
14:29 16.1 16.0 99 1022.4 10.7 WSW 11.4 0.0 0.2
14:30 16.1 16.0 99 1022.4 9.2 WSW 11.4 0.0 0.2
14:31 16.1 16.0 99 1022.4 9.2 WSW 11.4 0.0 0.2
14:33 16.1 16.0 99 1022.4 9.8 WSW 10.7 0.0 0.2
14:34 16.1 16.0 99 1022.4 9.8 WSW 10.7 0.0 0.2
14:35 16.1 16.0 99 1022.4 7.6 S 10.7 0.0 0.2
14:36 16.1 16.0 99 1022.4 5.4 WSW 10.7 0.0 0.2
14:37 16.1 16.0 99 1022.5 8.3 S 10.7 0.0 0.2
14:38 16.1 16.0 99 1022.4 8.3 S 10.7 0.0 0.2
14:39 16.1 16.0 99 1022.5 7.6 S 10.7 0.0 0.2
14:40 16.1 16.0 99 1022.4 10.7 SSW 10.7 0.0 0.2
14:41 16.1 16.0 99 1022.4 6.9 SSW 10.7 0.0 0.2
14:42 16.1 16.0 99 1022.3 5.4 SSW 10.7 0.0 0.2
14:43 16.2 16.1 99 1022.3 9.2 SSW 10.7 0.0 0.2
14:44 16.2 16.1 99 1022.3 6.9 WSW 10.7 0.0 0.2
14:45 16.2 16.1 99 1022.4 6.9 W 10.7 0.0 0.2
14:47 16.2 16.1 99 1022.4 5.4 W 10.7 0.8 0.3
14:48 16.2 16.1 99 1022.3 6.9 W 10.7 0.8 0.3
14:50 16.2 16.1 99 1022.5 9.8 N 10.7 1.5 0.3
14:51 16.2 16.1 99 1022.5 9.2 NW 9.8 1.5 0.3
14:52 16.1 16.0 99 1022.5 4.5 N 9.8 0.8 0.3
14:53 16.1 16.0 99 1022.4 5.4 W 9.8 0.8 0.3
14:55 16.1 16.0 99 1022.3 6.9 W 9.8 0.0 0.3
14:56 16.0 15.9 99 1022.3 6.0 WSW 9.8 0.0 0.3
14:57 16.0 15.9 99 1022.3 6.9 NW 9.8 0.0 0.3
14:58 16.0 15.9 99 1022.3 6.9 NW 9.8 0.0 0.3
14:59 15.9 15.8 99 1022.3 7.6 NW 9.8 0.0 0.3
15:01 15.9 15.8 99 1022.4 6.9 W 7.6 0.0 0.3
15:02 15.9 15.8 99 1022.5 4.5 W 7.6 0.0 0.3
15:03 15.9 15.8 99 1022.5 5.4 W 7.6 0.0 0.3
15:04 15.9 15.8 99 1022.4 7.6 W 7.6 0.0 0.3
15:05 15.9 15.8 99 1022.5 7.6 NW 7.6 0.0 0.3
15:06 15.9 15.8 99 1022.4 4.5 NW 7.6 0.0 0.3
15:07 15.9 15.8 99 1022.5 6.0 WSW 7.6 0.0 0.3
15:08 15.9 15.8 99 1022.3 6.0 NW 7.6 0.0 0.3
15:09 15.9 15.8 99 1022.4 5.4 W 7.6 0.0 0.3
15:10 15.9 15.8 99 1022.4 6.9 N 7.6 0.0 0.3
15:11 15.9 15.8 99 1022.4 7.6 NW 7.6 0.0 0.3
15:13 15.9 15.8 99 1022.4 6.9 NW 8.3 0.0 0.3
15:14 15.9 15.8 99 1022.3 8.3 NW 8.3 0.0 0.3
15:15 15.9 15.8 99 1022.5 6.9 W 8.3 0.0 0.3
15:16 15.8 15.7 99 1022.3 6.0 W 11.4 0.0 0.3
15:17 15.8 15.7 99 1022.5 8.3 W 11.4 0.0 0.3
15:18 15.8 15.7 99 1022.5 9.2 W 11.4 0.0 0.3
15:19 15.8 15.7 99 1022.4 8.3 W 11.4 0.0 0.3
15:20 15.8 15.7 99 1022.3 9.8 W 11.4 0.0 0.3
15:21 15.8 15.7 99 1022.3 8.3 NW 11.4 0.0 0.3
15:22 15.8 15.7 99 1022.4 7.6 WNW 11.4 0.0 0.3
15:23 15.7 15.6 99 1022.5 8.3 NW 11.4 0.0 0.3
15:24 15.7 15.6 99 1022.5 5.4 W 11.4 0.0 0.3
15:25 15.7 15.6 99 1022.4 8.3 W 11.4 0.0 0.3
15:26 15.8 15.7 99 1022.5 4.5 W 9.8 0.0 0.3
15:27 15.8 15.7 99 1022.4 6.0 N 9.8 0.0 0.3
15:29 15.8 15.7 99 1022.4 5.4 W 9.8 0.0 0.3
15:30 15.8 15.7 99 1022.4 6.0 N 9.8 0.0 0.3
15:31 15.8 15.7 99 1022.5 7.6 N 8.3 0.0 0.3
15:32 15.9 15.8 99 1022.4 5.4 N 8.3 0.0 0.3
15:34 15.8 15.7 99 1022.4 5.4 W 8.3 0.0 0.3
15:35 15.8 15.7 99 1022.3 4.5 W 8.3 0.0 0.3
15:36 15.8 15.7 99 1022.4 3.8 NE 8.3 0.0 0.3
15:37 15.8 15.7 99 1022.5 6.0 NE 8.3 0.0 0.3
15:38 15.8 15.7 99 1022.5 6.9 NW 9.8 0.0 0.3
15:39 15.8 15.7 99 1022.4 6.0 NW 9.8 0.0 0.3
15:40 15.8 15.7 99 1022.4 7.6 WSW 9.8 0.0 0.3
15:41 15.8 15.7 99 1022.4 10.7 W 10.7 0.0 0.3
15:43 15.8 15.7 99 1022.5 8.3 W 10.7 0.0 0.3
15:44 15.8 15.7 99 1022.3 8.3 N 10.7 0.0 0.3
15:45 15.8 15.7 99 1022.4 7.6 W 10.7 0.0 0.3
15:46 15.8 15.7 99 1022.3 9.2 W 10.7 0.0 0.3
15:47 15.8 15.7 99 1022.3 6.9 NW 10.7 0.0 0.3
15:48 15.8 15.7 99 1022.3 6.9 N 10.7 0.0 0.3
15:49 15.8 15.7 99 1022.3 6.0 WSW 10.7 0.0 0.3
15:50 15.8 15.7 99 1022.3 6.9 WSW 10.7 0.0 0.3
15:51 15.8 15.7 99 1022.3 6.9 W 10.7 0.0 0.3
15:52 15.8 15.7 99 1022.3 7.6 NW 10.7 0.0 0.3
15:53 15.8 15.7 99 1022.3 6.0 N 9.2 0.0 0.3
15:54 15.8 15.7 99 1022.4 9.2 NW 9.2 0.0 0.3
15:56 15.8 15.7 99 1022.3 5.4 N 9.2 0.0 0.3
15:57 15.9 15.8 99 1022.3 8.3 W 9.2 0.0 0.3
15:59 15.9 15.8 99 1022.3 7.6 W 9.2 0.0 0.3
16:00 15.9 15.8 99 1022.3 6.9 W 9.2 0.0 0.3
16:01 15.9 15.8 99 1022.3 6.9 W 9.2 0.0 0.3
16:02 15.9 15.8 99 1022.3 6.0 N 9.2 0.0 0.3
16:03 16.0 15.9 99 1022.3 6.9 WSW 9.2 0.0 0.3
16:04 15.9 15.8 99 1022.3 8.3 NNW 11.4 0.0 0.3
16:05 15.9 15.8 99 1022.3 6.0 NNW 11.4 0.0 0.3
16:06 15.9 15.8 99 1022.2 9.8 NW 11.4 0.0 0.3
16:08 15.8 15.7 99 1022.3 5.4 W 11.4 0.0 0.3
16:09 15.8 15.7 99 1022.2 6.0 W 11.4 0.0 0.3
16:10 15.8 15.7 99 1022.3 5.4 W 11.4 0.0 0.3
16:11 15.8 15.7 99 1022.3 6.9 N 11.4 0.0 0.3
16:12 15.8 15.7 99 1022.3 6.0 W 11.4 0.0 0.3
16:14 15.9 15.8 99 1022.3 7.6 E 9.8 0.0 0.3
16:15 15.9 15.8 99 1022.3 6.0 N 9.8 0.0 0.3
16:16 15.9 15.8 99 1022.5 6.9 N 9.8 0.0 0.3
16:17 15.9 15.8 99 1022.2 7.6 W 9.8 0.0 0.3
16:18 15.9 15.8 99 1022.3 9.2 NW 11.4 0.0 0.3
16:19 15.9 15.8 99 1022.2 8.3 NW 11.4 0.0 0.3
16:21 15.9 15.8 99 1022.3 7.6 WNW 11.4 0.0 0.3
16:22 15.9 15.8 99 1022.3 9.8 WNW 11.4 0.0 0.3
16:23 15.9 15.8 99 1022.4 10.7 NW 11.4 0.0 0.3
16:24 15.9 15.8 99 1022.2 10.7 W 11.4 0.0 0.3
16:25 15.9 15.8 99 1022.3 11.4 W 11.4 0.0 0.3
16:26 15.9 15.8 99 1022.2 7.6 W 11.4 0.0 0.3
16:27 15.9 15.8 99 1022.1 6.9 SSW 11.4 0.0 0.3
16:29 15.9 15.8 99 1022.2 9.8 S 11.4 0.0 0.3
16:30 15.9 15.8 99 1022.2 9.8 W 11.4 0.0 0.3
16:31 15.9 15.8 99 1022.1 11.4 W 11.4 0.0 0.3
16:33 15.9 15.8 99 1022.0 6.0 W 11.4 0.0 0.3
16:34 15.9 15.8 99 1022.2 6.0 W 11.4 0.0 0.3
16:35 15.9 15.8 99 1022.0 8.3 N 11.4 0.0 0.3
16:36 16.0 15.9 99 1022.2 7.6 W 11.4 0.0 0.3
16:37 16.0 15.9 99 1022.0 6.9 W 11.4 0.0 0.3
16:38 16.0 15.9 99 1022.1 4.5 W 11.4 0.0 0.3
16:39 16.1 16.0 99 1022.0 6.0 NW 11.4 0.0 0.3
16:40 16.1 16.0 99 1022.1 5.4 NW 11.4 0.0 0.3
16:41 16.1 16.0 99 1022.0 5.4 W 11.4 0.0 0.3
16:42 16.1 16.0 99 1022.2 8.3 W 9.2 0.0 0.3
16:43 16.2 16.1 99 1022.2 8.3 N 9.2 0.0 0.3
16:44 16.2 16.1 99 1022.0 9.8 W 9.8 0.0 0.3
16:45 16.2 16.1 99 1022.0 9.2 NW 9.8 0.0 0.3
16:46 16.2 16.1 99 1022.1 9.2 NW 9.8 0.0 0.3
16:47 16.2 16.1 99 1021.9 9.8 WSW 9.8 0.0 0.3
16:49 16.2 16.1 99 1022.0 6.0 W 9.8 0.0 0.3
16:50 16.2 16.1 99 1022.0 6.0 W 9.8 0.0 0.3
16:51 16.2 16.1 99 1021.9 8.3 N 9.8 0.0 0.3
16:52 16.2 16.1 99 1022.1 8.3 N 9.8 0.0 0.3
16:53 16.2 16.1 99 1021.9 10.7 N 10.7 0.0 0.3
16:54 16.2 16.1 99 1022.0 6.9 W 10.7 0.0 0.3
16:55 16.2 16.1 99 1022.0 9.2 W 10.7 0.0 0.3
16:56 16.2 16.1 99 1022.0 5.4 W 10.7 0.0 0.3
16:57 16.2 16.1 99 1022.0 9.8 W 10.7 0.0 0.3
16:58 16.2 16.1 99 1021.9 7.6 WSW 10.7 0.0 0.3
16:59 16.2 16.1 99 1022.1 8.3 NW 10.7 0.0 0.3
17:00 16.2 16.1 99 1022.0 7.6 NW 10.7 0.0 0.3
17:01 16.2 16.1 99 1022.0 6.9 W 10.7 0.0 0.3
17:02 16.2 16.1 99 1022.0 5.4 NW 10.7 0.0 0.3
17:03 16.2 16.1 99 1022.0 6.9 W 9.8 0.0 0.3
17:04 16.1 16.0 99 1021.8 6.9 N 9.8 0.0 0.3
17:05 16.1 16.0 99 1022.0 6.0 WNW 9.8 0.0 0.3
17:07 16.1 16.0 99 1022.0 3.8 W 8.3 0.0 0.3
17:08 16.1 16.0 99 1022.0 3.8 W 8.3 0.0 0.3
17:09 16.2 16.1 99 1022.1 8.3 NW 8.3 0.0 0.3
17:10 16.2 16.1 99 1022.1 7.6 W 8.3 0.0 0.3
17:11 16.2 16.1 99 1022.1 6.9 NW 8.3 0.0 0.3
17:12 16.1 16.0 99 1022.0 7.6 NW 8.3 0.0 0.3
17:13 16.1 16.0 99 1022.2 7.6 NW 8.3 0.0 0.3
17:14 16.1 16.0 99 1022.2 7.6 W 8.3 0.0 0.3
17:15 16.1 16.0 99 1022.0 6.9 W 8.3 0.0 0.3
17:16 16.1 16.0 99 1022.1 6.9 N 8.3 0.0 0.3
17:17 16.1 16.0 99 1022.1 9.8 N 9.8 0.0 0.3
17:18 16.1 16.0 99 1022.0 9.2 N 9.8 0.0 0.3
17:19 16.1 16.0 99 1022.0 6.0 NW 9.8 0.0 0.3
17:20 16.0 15.9 99 1022.1 6.0 W 9.8 0.0 0.3
17:21 16.0 15.9 99 1022.0 10.7 W 10.7 0.0 0.3
17:22 16.0 15.9 99 1022.1 6.9 W 10.7 0.0 0.3
17:23 16.0 15.9 99 1022.1 3.8 NE 10.7 0.0 0.3
17:25 16.0 15.9 99 1022.1 6.9 WNW 10.7 0.0 0.3
17:26 16.0 15.9 99 1022.0 6.9 NW 10.7 0.0 0.3
17:27 16.0 15.9 99 1022.0 6.0 NW 10.7 0.0 0.3
17:28 15.9 15.8 99 1022.1 7.6 W 10.7 0.0 0.3
17:29 15.9 15.8 99 1022.1 6.0 NW 10.7 0.0 0.3
17:30 15.9 15.8 99 1022.3 4.5 W 10.7 0.0 0.3
17:31 15.9 15.8 99 1022.1 9.2 W 10.7 0.0 0.3
17:32 15.9 15.8 99 1022.2 7.6 NW 10.7 0.0 0.3
17:33 15.9 15.8 99 1022.0 5.4 N 9.2 0.0 0.3
17:34 15.9 15.8 99 1022.0 5.4 W 9.2 0.0 0.3
17:35 15.9 15.8 99 1022.1 8.3 W 9.2 0.0 0.3
17:36 15.9 15.8 99 1022.1 6.9 W 9.2 0.0 0.3
17:37 15.9 15.8 99 1022.2 9.8 W 9.8 0.0 0.3
17:38 15.9 15.8 99 1022.0 7.6 NW 9.8 0.0 0.3
17:39 15.8 15.7 99 1022.0 6.9 WNW 9.8 0.0 0.3
17:40 15.8 15.7 99 1021.9 7.6 W 9.8 0.0 0.3
17:41 15.8 15.7 99 1022.1 4.5 W 9.8 0.0 0.3
17:43 15.8 15.7 99 1021.9 6.9 NW 9.8 0.0 0.3
17:44 15.8 15.7 99 1022.1 7.6 NW 9.8 0.0 0.3
17:45 15.8 15.7 99 1022.1 7.6 NW 9.8 0.0 0.3
17:46 15.8 15.7 99 1022.1 7.6 NW 9.8 0.0 0.3
17:47 15.8 15.7 99 1022.0 9.2 W 9.8 0.0 0.3
17:48 15.7 15.6 99 1022.2 9.2 NW 9.8 0.0 0.3
17:49 15.7 15.6 99 1022.2 8.3 NW 9.2 0.0 0.3
17:50 15.7 15.6 99 1022.3 6.0 NW 9.2 0.0 0.3
17:51 15.7 15.6 99 1022.3 6.9 W 9.2 0.0 0.3
17:52 15.7 15.6 99 1022.3 8.3 W 9.2 0.0 0.3
17:53 15.6 15.5 99 1022.2 7.6 SW 9.2 0.0 0.3
17:54 15.6 15.5 99 1022.1 6.0 SW 9.2 0.0 0.3
17:55 15.6 15.5 99 1022.3 6.9 N 9.2 0.0 0.3
17:56 15.6 15.5 99 1022.2 6.9 W 9.2 0.0 0.3
17:57 15.5 15.4 99 1022.2 6.0 W 9.2 0.0 0.3
17:58 15.5 15.4 99 1022.3 6.9 W 8.3 0.0 0.3
17:59 15.5 15.4 99 1022.1 5.4 SW 8.3 0.0 0.3
18:00 15.5 15.4 99 1022.2 6.0 SW 8.3 0.0 0.3
18:02 15.5 15.4 99 1022.1 5.4 SW 8.3 0.0 0.3
18:03 15.5 15.4 99 1022.2 6.0 NW 7.6 0.0 0.3
18:04 15.5 15.4 99 1022.3 5.4 W 7.6 0.0 0.3
18:05 15.5 15.4 99 1022.3 6.9 NW 7.6 0.0 0.3
18:06 15.5 15.4 99 1022.3 6.0 W 7.6 0.0 0.3
18:07 15.5 15.4 99 1022.3 6.0 WNW 7.6 0.0 0.3
18:08 15.4 15.3 99 1022.3 8.3 SW 8.3 0.0 0.3
18:09 15.5 15.4 99 1022.3 10.7 NW 10.7 0.0 0.3
18:10 15.4 15.3 99 1022.2 9.8 NW 10.7 0.0 0.3
18:11 15.4 15.3 99 1022.2 6.9 NW 10.7 0.0 0.3
18:12 15.4 15.3 99 1022.2 7.6 NW 10.7 0.0 0.3
18:13 15.4 15.3 99 1022.1 4.5 NW 10.7 0.0 0.3
18:14 15.4 15.3 99 1022.2 6.9 NW 10.7 0.0 0.3
18:15 15.4 15.3 99 1022.2 6.0 W 10.7 0.0 0.3
18:16 15.4 15.3 99 1022.3 5.4 N 10.7 0.0 0.3
18:17 15.4 15.3 99 1022.2 7.6 N 10.7 0.0 0.3
18:18 15.4 15.3 99 1022.3 7.6 SW 10.7 0.0 0.3
18:20 15.4 15.3 99 1022.3 6.9 W 9.2 0.0 0.3
18:21 15.4 15.3 99 1022.1 6.9 NW 9.2 0.0 0.3
18:22 15.4 15.3 99 1022.1 6.9 NW 9.2 0.0 0.3
18:23 15.4 15.3 99 1022.2 3.8 NW 9.2 0.0 0.3
18:24 15.4 15.3 99 1022.2 6.0 N 9.2 0.0 0.3
18:25 15.4 15.3 99 1022.3 4.5 NW 9.2 0.0 0.3
18:26 15.4 15.3 99 1022.2 5.4 W 9.2 0.0 0.3
18:27 15.4 15.3 99 1022.1 6.0 W 9.2 0.0 0.3
18:28 15.4 15.3 99 1022.2 8.3 NW 9.2 0.0 0.3
18:29 15.4 15.3 99 1022.1 7.6 NW 9.2 0.0 0.3
18:30 15.4 15.3 99 1022.3 7.6 NW 8.3 0.0 0.3
18:31 15.4 15.3 99 1022.2 8.3 W 8.3 0.0 0.3
18:32 15.4 15.3 99 1022.3 6.0 W 8.3 0.0 0.3
18:33 15.4 15.3 99 1022.2 4.5 W 8.3 0.0 0.3
18:34 15.4 15.3 99 1022.3 6.0 NW 8.3 0.0 0.3
18:35 15.4 15.3 99 1022.3 3.8 W 8.3 0.0 0.3
18:36 15.4 15.3 99 1022.4 8.3 NW 8.3 0.0 0.3
18:37 15.4 15.3 99 1022.4 9.8 NW 9.8 0.0 0.3
18:38 15.4 15.3 99 1022.4 5.4 NW 9.8 0.0 0.3
18:40 15.3 15.2 99 1022.5 5.4 NW 9.8 0.0 0.3
18:41 15.4 15.3 99 1022.4 4.5 W 9.8 0.0 0.3
18:42 15.3 15.2 99 1022.3 8.3 NW 9.8 0.0 0.3
18:43 15.3 15.2 99 1022.3 6.9 W 9.8 0.0 0.3
18:44 15.3 15.2 99 1022.3 6.0 NW 9.8 0.0 0.3
18:45 15.3 15.2 99 1022.5 6.0 NW 9.8 0.0 0.3
18:46 15.3 15.2 99 1022.4 6.9 NW 9.8 0.0 0.3
18:47 15.3 15.2 99 1022.4 5.4 N 9.8 0.0 0.3
18:48 15.3 15.2 99 1022.4 7.6 W 8.3 0.0 0.3
18:49 15.3 15.2 99 1022.5 7.6 W 8.3 0.0 0.3
18:50 15.2 15.1 99 1022.5 3.8 W 8.3 0.0 0.3
18:51 15.3 15.2 99 1022.5 5.4 W 8.3 0.0 0.3
18:52 15.2 15.1 99 1022.5 6.9 W 7.6 0.0 0.3
18:53 15.2 15.1 99 1022.4 4.5 NW 7.6 0.0 0.3
18:54 15.2 15.1 99 1022.5 7.6 W 7.6 0.0 0.3
18:55 15.2 15.1 99 1022.4 8.3 W 8.3 0.0 0.3
18:56 15.2 15.1 99 1022.5 5.4 N 8.3 0.0 0.3
18:58 15.2 15.1 99 1022.3 9.2 W 9.2 0.0 0.3
18:59 15.2 15.1 99 1022.5 9.2 W 9.2 0.0 0.3
19:00 15.2 15.1 99 1022.5 9.2 W 9.2 0.0 0.3
19:01 15.2 15.1 99 1022.5 9.2 W 9.2 0.0 0.3
19:02 15.2 15.1 99 1022.7 8.3 N 9.2 0.0 0.3
19:03 15.2 15.1 99 1022.5 7.6 W 9.2 0.0 0.3
19:04 15.1 15.0 99 1022.7 9.2 NW 9.2 0.0 0.3
19:05 15.1 15.0 99 1022.5 9.2 W 9.2 0.0 0.3
19:06 15.1 15.0 99 1022.5 5.4 N 9.2 0.0 0.3
19:07 15.1 15.0 99 1022.5 4.5 W 9.2 0.0 0.3
19:08 15.1 15.0 99 1022.5 5.4 NW 9.2 0.0 0.3
19:09 15.1 15.0 99 1022.5 6.9 N 9.2 0.0 0.3
19:10 15.0 14.9 99 1022.5 10.7 W 10.7 0.0 0.3
19:11 15.1 15.0 99 1022.5 5.4 NW 10.7 0.0 0.3
19:12 15.0 14.9 99 1022.5 4.5 NW 10.7 0.0 0.3
19:13 15.0 14.9 99 1022.6 5.4 NE 10.7 0.0 0.3
19:14 15.0 14.9 99 1022.6 6.0 SE 10.7 0.0 0.3
19:15 15.0 14.9 99 1022.7 7.6 NW 10.7 0.0 0.3
19:16 15.0 14.9 99 1022.7 5.4 N 10.7 0.0 0.3
19:17 15.0 14.9 99 1022.5 9.2 NW 10.7 0.0 0.3
19:19 14.9 14.8 99 1022.7 5.4 NW 10.7 0.0 0.3
19:20 14.9 14.8 99 1022.7 5.4 S 10.7 0.0 0.3
19:21 14.9 14.8 99 1022.6 9.2 S 9.2 0.0 0.3
19:22 14.9 14.8 99 1022.8 6.9 NW 9.2 0.0 0.3
19:23 14.9 14.8 99 1022.6 3.8 W 9.2 0.0 0.3
19:24 14.9 14.8 99 1022.6 9.2 WNW 9.2 0.0 0.3
19:25 14.9 14.8 99 1022.6 5.4 N 9.2 0.0 0.3
19:26 14.9 14.8 99 1022.7 4.5 N 9.2 0.0 0.3
19:27 14.9 14.8 99 1022.7 4.5 W 9.2 0.0 0.3
19:28 14.8 14.7 99 1022.7 6.0 NW 9.2 0.0 0.3
19:29 14.8 14.7 99 1022.6 8.3 WSW 9.2 0.0 0.3
19:30 14.8 14.7 99 1022.7 5.4 N 9.2 0.0 0.3
19:31 14.8 14.7 99 1022.7 6.0 WNW 9.2 0.0 0.3
19:32 14.8 14.7 99 1022.8 6.9 NW 9.2 0.0 0.3
19:33 14.8 14.7 99 1022.8 6.0 WNW 9.2 0.0 0.3
19:34 14.8 14.7 99 1022.6 9.2 NW 9.2 0.0 0.3
19:35 14.8 14.7 99 1022.6 8.3 NW 9.2 0.0 0.3
19:36 14.8 14.7 99 1022.7 5.4 N 9.2 0.0 0.3
19:38 14.8 14.7 99 1022.7 9.2 N 9.2 0.0 0.3
19:39 14.7 14.6 99 1022.8 7.6 NW 9.2 0.0 0.3
19:40 14.7 14.6 99 1022.8 2.2 NW 9.2 0.0 0.3
19:41 14.7 14.6 99 1022.6 3.8 NW 9.2 0.0 0.3
19:42 14.7 14.6 99 1022.7 5.4 N 9.2 0.0 0.3
19:43 14.7 14.6 99 1022.7 3.8 NW 9.2 0.0 0.3
19:44 14.7 14.6 99 1022.8 4.5 NE 9.2 0.0 0.3
19:45 14.7 14.6 99 1022.6 9.2 NW 9.2 0.0 0.3
19:46 14.7 14.6 99 1022.8 6.9 NW 9.2 0.0 0.3
19:47 14.7 14.6 99 1022.9 7.6 SSW 9.2 0.0 0.3
19:48 14.6 14.5 99 1022.7 7.6 WNW 9.2 0.0 0.3
19:49 14.6 14.5 99 1022.8 3.8 WSW 9.2 0.0 0.3
19:50 14.6 14.5 99 1022.8 9.2 NW 9.2 0.0 0.3
19:51 14.6 14.5 99 1022.8 6.0 NW 9.2 0.0 0.3
19:52 14.6 14.5 99 1022.6 5.4 N 9.2 0.0 0.3
19:53 14.5 14.4 99 1022.6 7.6 NW 9.2 0.0 0.3
19:54 14.6 14.5 99 1022.9 6.9 N 9.2 0.0 0.3
19:55 14.6 14.5 99 1022.7 8.3 N 9.2 0.0 0.3
19:57 14.5 14.4 99 1022.7 8.3 NW 9.2 0.0 0.3
19:58 14.5 14.4 99 1022.7 8.3 NW 9.2 0.0 0.3
19:59 14.5 14.4 99 1022.8 6.9 N 9.2 0.0 0.3
20:00 14.5 14.4 99 1022.8 10.7 N 10.7 0.0 0.3
20:01 14.5 14.4 99 1022.9 10.7 N 10.7 0.0 0.3
20:02 14.4 14.3 99 1022.8 6.9 NW 11.4 0.0 0.3
20:03 14.4 14.3 99 1022.8 10.7 NW 11.4 0.0 0.3
20:04 14.3 14.2 99 1022.9 11.4 W 11.4 0.0 0.3
20:05 14.3 14.2 99 1022.9 7.6 NW 11.4 0.0 0.3
20:06 14.3 14.2 99 1022.9 9.8 N 11.4 0.0 0.3
20:07 14.2 14.1 99 1022.9 9.8 NW 11.4 0.0 0.3
20:08 14.2 14.1 99 1022.9 7.6 NW 11.4 0.0 0.3
20:09 14.2 14.1 99 1022.8 6.9 N 11.4 0.0 0.3
20:10 14.2 14.1 99 1022.9 8.3 N 11.4 0.0 0.3
20:11 14.1 14.0 99 1023.1 7.6 NW 11.4 0.0 0.3
20:12 14.1 14.0 99 1022.9 6.0 WNW 11.4 0.0 0.3
20:13 14.1 14.0 99 1023.0 6.0 N 11.4 0.0 0.3
20:14 14.0 13.9 99 1023.1 5.4 N 9.8 0.0 0.3
20:16 14.0 13.9 99 1023.0 8.3 N 9.8 0.0 0.3
20:17 14.0 13.9 99 1023.0 6.0 NW 9.8 0.0 0.3
20:18 14.0 13.9 99 1022.8 6.0 N 9.2 0.0 0.3
20:19 13.9 13.8 99 1022.8 7.6 NW 9.2 0.0 0.3
20:20 13.9 13.8 99 1023.1 9.2 E 9.2 0.0 0.3
20:21 13.9 13.8 99 1023.1 6.0 N 9.2 0.0 0.3
20:22 13.9 13.8 99 1023.1 5.4 W 9.2 0.0 0.3
20:23 13.9 13.8 99 1023.1 5.4 W 9.2 0.0 0.3
20:24 13.9 13.8 99 1023.0 8.3 N 9.2 0.0 0.3
20:25 13.8 13.7 99 1022.8 6.9 NW 9.2 0.0 0.3
20:26 13.8 13.7 99 1023.1 6.0 NW 9.2 0.0 0.3
20:27 13.8 13.7 99 1023.0 6.0 NE 9.2 0.0 0.3
20:28 13.8 13.7 99 1022.9 6.9 N 9.2 0.0 0.3
20:29 13.8 13.7 99 1022.9 5.4 NW 9.2 0.0 0.3
20:30 13.8 13.7 99 1023.0 4.5 NW 8.3 0.0 0.3
20:31 13.8 13.7 99 1023.2 6.9 NW 8.3 0.0 0.3
20:32 13.8 13.7 99 1023.1 8.3 NW 8.3 0.0 0.3
20:33 13.7 13.6 99 1023.1 11.4 W 11.4 0.0 0.3
20:35 13.7 13.6 99 1023.2 9.2 WNW 11.4 0.0 0.3
20:36 13.7 13.6 99 1023.1 6.9 N 11.4 0.0 0.3
20:37 13.7 13.6 99 1023.1 5.4 N 11.4 0.0 0.3
20:38 13.6 13.5 99 1023.1 5.4 N 11.4 0.0 0.3
20:39 13.6 13.5 99 1023.2 8.3 NW 11.4 0.0 0.3
20:40 13.6 13.5 99 1023.3 8.3 E 11.4 0.0 0.3
20:41 13.6 13.5 99 1023.2 9.2 NW 11.4 0.0 0.3
20:42 13.6 13.5 99 1023.0 5.4 N 11.4 0.0 0.3
20:43 13.6 13.5 99 1023.0 5.4 N 11.4 0.0 0.3
20:44 13.5 13.4 99 1023.1 5.4 NW 9.8 0.0 0.3
20:45 13.5 13.4 99 1023.1 6.9 N 9.8 0.0 0.3
20:46 13.5 13.4 99 1023.1 6.0 NE 9.8 0.0 0.3
20:47 13.5 13.4 99 1023.2 5.4 NW 9.8 0.0 0.3
20:48 13.4 13.3 99 1023.2 3.8 E 9.8 0.0 0.3
20:49 13.4 13.3 99 1023.3 3.8 N 9.2 0.0 0.3
20:50 13.4 13.3 99 1023.1 5.4 NW 9.2 0.0 0.3
20:51 13.4 13.3 99 1023.1 5.4 WNW 6.9 0.0 0.3
20:52 13.4 13.3 99 1023.2 6.9 N 8.3 0.0 0.3
20:54 13.3 13.2 99 1023.4 10.7 N 10.7 0.0 0.3
20:55 13.3 13.2 99 1023.2 7.6 N 10.7 0.0 0.3
20:56 13.3 13.2 99 1023.1 6.0 N 10.7 0.0 0.3
20:57 13.3 13.2 99 1023.2 6.9 N 10.7 0.0 0.3
20:58 13.3 13.2 99 1023.3 6.0 NW 10.7 0.0 0.3
20:59 13.3 13.2 99 1023.2 3.8 N 10.7 0.0 0.3
21:00 13.2 13.1 99 1023.2 9.2 N 10.7 0.0 0.3
21:01 13.2 13.1 99 1023.2 9.2 N 10.7 0.0 0.3
21:02 13.2 13.1 99 1023.1 7.6 N 10.7 0.0 0.3
21:03 13.2 13.1 99 1023.1 6.0 N 10.7 0.0 0.3
21:04 13.2 13.1 99 1023.3 8.3 N 10.7 0.0 0.3
21:05 13.2 13.1 99 1023.3 11.4 N 11.4 0.0 0.3
21:06 13.2 13.1 99 1023.3 7.6 NW 11.4 0.0 0.3
21:07 13.2 13.1 99 1023.3 6.0 NW 11.4 0.0 0.3
21:08 13.2 13.1 99 1023.4 3.8 NW 11.4 0.0 0.3
21:09 13.1 13.0 99 1023.3 5.4 N 11.4 0.0 0.3
21:10 13.1 13.0 99 1023.3 8.3 NW 11.4 0.0 0.3
21:11 13.1 13.0 99 1023.3 7.6 N 11.4 0.0 0.3
21:12 13.1 13.0 99 1023.3 6.9 NW 11.4 0.0 0.3
21:15 13.0 12.9 99 1023.3 6.0 W 11.4 0.0 0.3
21:16 13.0 12.9 99 1023.4 6.9 NW 9.8 0.0 0.3
21:17 13.0 12.9 99 1023.4 7.6 N 9.8 0.0 0.3
21:18 13.0 12.9 99 1023.4 8.3 N 9.8 0.0 0.3
21:19 12.9 12.8 99 1023.3 8.3 NW 9.8 0.0 0.3
21:20 12.9 12.8 99 1023.4 8.3 NW 9.8 0.0 0.3
21:21 12.9 12.8 99 1023.5 6.0 N 9.8 0.0 0.3
21:22 12.9 12.8 99 1023.4 6.0 N 9.8 0.0 0.3
21:23 12.9 12.8 99 1023.5 7.6 N 9.8 0.0 0.3
21:24 12.8 12.7 99 1023.4 8.3 NW 9.8 0.0 0.3
21:25 12.8 12.7 99 1023.3 9.2 N 9.2 0.0 0.3
21:26 12.8 12.7 99 1023.5 9.8 WNW 9.8 0.0 0.3
21:27 12.8 12.7 99 1023.5 9.8 N 9.8 0.0 0.3
21:28 12.8 12.7 99 1023.6 6.0 NW 9.8 0.0 0.3
21:29 12.7 12.6 99 1023.6 6.0 WNW 9.8 0.0 0.3
21:30 12.8 12.7 99 1023.5 4.5 NE 9.8 0.0 0.3
21:31 12.7 12.6 99 1023.5 7.6 S 9.8 0.0 0.3
21:33 12.7 12.6 99 1023.5 8.3 NW 9.8 0.0 0.3
21:34 12.7 12.6 99 1023.6 7.6 N 9.8 0.0 0.3
21:35 12.7 12.6 99 1023.7 8.3 NW 9.8 0.0 0.3
21:36 12.7 12.6 99 1023.7 6.9 NW 9.8 0.0 0.3
21:37 12.6 12.5 99 1023.7 7.6 N 9.8 0.0 0.3
21:38 12.6 12.5 99 1023.7 5.4 N 8.3 0.0 0.3
21:39 12.6 12.5 99 1023.7 6.0 W 8.3 0.0 0.3
21:40 12.6 12.5 99 1023.8 7.6 S 8.3 0.0 0.3
21:41 12.6 12.5 99 1023.8 5.4 WNW 8.3 0.0 0.3
21:42 12.6 12.5 99 1023.8 3.8 NW 8.3 0.0 0.3
21:43 12.6 12.5 99 1023.8 3.8 NW 8.3 0.0 0.3
21:44 12.5 12.4 99 1023.7 4.5 NNE 8.3 0.0 0.3
21:45 12.5 12.4 99 1023.7 4.5 NNE 8.3 0.0 0.3
21:46 12.5 12.4 99 1023.8 3.1 NW 8.3 0.0 0.3
21:47 12.5 12.4 99 1023.8 3.8 WNW 8.3 0.0 0.3
21:48 12.5 12.4 99 1023.8 6.9 NW 8.3 0.0 0.3
21:49 12.4 12.3 99 1023.8 3.8 NW 7.6 0.0 0.3
21:50 12.4 12.3 99 1023.8 3.8 W 7.6 0.0 0.3
21:52 12.4 12.3 99 1023.8 6.9 NW 6.9 0.0 0.3
21:53 12.4 12.3 99 1023.8 5.4 S 6.9 0.0 0.3
21:54 12.3 12.2 99 1023.8 3.8 SE 6.9 0.0 0.3
21:55 12.3 12.2 99 1023.9 6.0 W 6.9 0.0 0.3
21:56 12.3 12.2 99 1023.9 4.5 W 6.9 0.0 0.3
21:57 12.3 12.2 99 1023.9 6.0 NW 6.9 0.0 0.3
21:58 12.3 12.2 99 1024.0 6.0 N 6.9 0.0 0.3
21:59 12.3 12.2 99 1024.0 4.5 E 6.9 0.0 0.3
22:00 12.3 12.2 99 1024.0 4.5 N 6.9 0.0 0.3
22:01 12.3 12.2 99 1024.0 4.5 N 6.9 0.0 0.3
22:02 12.3 12.2 99 1024.1 4.5 N 6.0 0.0 0.3
22:03 12.3 12.2 99 1024.1 4.5 N 6.0 0.0 0.3
22:04 12.3 12.2 99 1024.1 4.5 N 6.0 0.0 0.3
22:05 12.2 12.1 99 1024.1 5.4 N 6.0 0.0 0.3
22:06 12.2 12.1 99 1024.1 6.0 N 6.0 0.0 0.3
22:07 12.2 12.1 99 1024.0 3.8 NW 6.0 0.0 0.3
22:08 12.2 12.1 99 1024.0 4.5 N 6.0 0.0 0.3
22:09 12.2 12.1 99 1024.0 4.5 N 6.0 0.0 0.3
22:11 12.2 12.1 99 1024.0 6.9 NW 6.9 0.0 0.3
22:12 12.1 12.0 99 1024.0 4.5 NW 6.9 0.0 0.3
22:13 12.1 12.0 99 1024.1 6.0 NW 6.9 0.0 0.3
22:14 12.1 12.0 99 1024.2 6.0 W 6.9 0.0 0.3
22:15 12.1 12.0 99 1024.1 4.5 NW 6.9 0.0 0.3
22:16 12.1 12.0 99 1024.0 6.0 NW 6.9 0.0 0.3
22:17 12.1 12.0 99 1024.1 7.6 NW 7.6 0.0 0.3
22:18 12.1 12.0 99 1024.1 6.9 NW 7.6 0.0 0.3
22:19 12.1 12.0 99 1024.2 4.5 N 7.6 0.0 0.3
22:20 12.1 12.0 99 1024.2 5.4 N 7.6 0.0 0.3
22:21 12.0 11.9 99 1024.2 6.0 S 7.6 0.0 0.3
22:22 12.0 11.9 99 1024.2 7.6 NW 7.6 0.0 0.3
22:23 12.0 11.9 99 1024.2 3.8 N 7.6 0.0 0.3
22:24 12.0 11.9 99 1024.3 6.9 N 7.6 0.0 0.3
22:25 12.0 11.9 99 1024.2 4.5 N 7.6 0.0 0.3
22:26 12.0 11.9 99 1024.1 4.5 NE 7.6 0.0 0.3
22:27 12.0 11.9 99 1024.2 2.2 NW 7.6 0.0 0.3
22:28 12.0 11.9 99 1024.2 4.5 NE 7.6 0.0 0.3
22:30 12.0 11.9 99 1024.2 4.5 N 7.6 0.0 0.3
22:31 12.0 11.9 99 1024.2 5.4 NW 7.6 0.0 0.3
22:32 12.0 11.9 99 1024.3 6.9 NW 7.6 0.0 0.3
22:33 12.0 11.9 99 1024.2 4.5 NW 6.9 0.0 0.3
22:34 11.9 11.8 99 1024.3 2.2 NE 6.9 0.0 0.3
22:35 11.9 11.8 99 1024.3 5.4 N 6.9 0.0 0.3
22:36 11.9 11.8 99 1024.3 3.8 S 6.9 0.0 0.3
22:37 11.9 11.8 99 1024.3 5.4 N 6.9 0.0 0.3
22:38 11.9 11.8 99 1024.3 5.4 NW 6.9 0.0 0.3
22:39 11.9 11.8 99 1024.3 3.1 N 6.9 0.0 0.3
22:40 11.9 11.8 99 1024.3 2.2 NW 6.9 0.0 0.3
22:41 11.9 11.8 99 1024.4 2.2 N 6.9 0.0 0.3
22:42 11.9 11.8 99 1024.3 5.4 N 5.4 0.0 0.3
22:43 11.9 11.8 99 1024.3 5.4 NW 5.4 0.0 0.3
22:44 11.9 11.8 99 1024.3 5.4 W 5.4 0.0 0.3
22:45 11.9 11.8 99 1024.4 5.4 NW 5.4 0.0 0.3
22:46 11.9 11.8 99 1024.3 5.4 N 5.4 0.0 0.3
22:47 11.9 11.8 99 1024.3 5.4 W 5.4 0.0 0.3
22:49 11.8 11.7 99 1024.4 3.1 E 5.4 0.0 0.3
22:50 11.8 11.7 99 1024.4 3.1 W 5.4 0.0 0.3
22:51 11.8 11.7 99 1024.3 4.5 W 5.4 0.0 0.3
22:52 11.8 11.7 99 1024.4 2.2 W 5.4 0.0 0.3
22:53 11.8 11.7 99 1024.3 3.8 W 5.4 0.0 0.3
22:54 11.8 11.7 99 1024.4 3.1 W 5.4 0.0 0.3
22:55 11.7 11.6 99 1024.3 3.1 W 5.4 0.0 0.3
22:56 11.7 11.6 99 1024.3 1.6 N 5.4 0.0 0.3
22:57 11.7 11.6 99 1024.5 4.5 N 5.4 0.0 0.3
22:58 11.7 11.6 99 1024.4 4.5 N 4.5 0.0 0.3
22:59 11.7 11.6 99 1024.3 4.5 W 6.0 0.0 0.3
23:00 11.6 11.5 99 1024.6 3.8 N 6.0 0.0 0.3
23:01 11.6 11.5 99 1024.6 3.8 N 6.0 0.0 0.3
23:02 11.6 11.5 99 1024.4 3.8 N 6.0 0.0 0.3
23:03 11.6 11.5 99 1024.4 3.8 N 6.0 0.0 0.3
23:04 11.6 11.5 99 1024.6 3.8 N 6.0 0.0 0.3
23:05 11.6 11.5 99 1024.6 5.4 NW 6.0 0.0 0.3
23:07 11.5 11.4 99 1024.6 2.2 W 6.0 0.0 0.3
23:08 11.5 11.4 99 1024.6 3.8 NW 6.0 0.0 0.3
23:09 11.5 11.4 99 1024.7 3.1 NW 5.4 0.0 0.3
23:10 11.5 11.4 99 1024.7 1.6 N 5.4 0.0 0.3
23:11 11.5 11.4 99 1024.5 5.4 NW 5.4 0.0 0.3
23:12 11.5 11.4 99 1024.7 5.4 W 5.4 0.0 0.3
23:13 11.4 11.3 99 1024.6 6.0 WNW 6.0 0.0 0.3
23:14 11.4 11.3 99 1024.5 3.1 S 6.0 0.0 0.3
23:15 11.4 11.3 99 1024.6 3.8 NW 6.0 0.0 0.3
23:16 11.4 11.3 99 1024.6 3.8 NW 6.0 0.0 0.3
23:17 11.4 11.3 99 1024.7 1.6 W 6.0 0.0 0.3
23:18 11.4 11.3 99 1024.6 2.2 N 6.0 0.0 0.3
23:19 11.4 11.3 99 1024.6 3.8 NW 6.0 0.0 0.3
23:20 11.4 11.3 99 1024.7 3.8 NE 6.0 0.0 0.3
23:21 11.4 11.3 99 1024.6 3.8 N 6.0 0.0 0.3
23:22 11.4 11.3 99 1024.6 3.1 N 6.0 0.0 0.3
23:23 11.4 11.3 99 1024.6 4.5 NW 6.0 0.0 0.3
23:24 11.3 11.2 99 1024.7 2.2 N 4.5 0.0 0.3
23:25 11.3 11.2 99 1024.5 1.6 N 4.5 0.0 0.3
23:26 11.3 11.2 99 1024.5 0.7 NW 4.5 0.0 0.3
23:27 11.3 11.2 99 1024.7 2.2 W 4.5 0.0 0.3
23:28 11.3 11.2 99 1024.7 2.2 W 4.5 0.0 0.3
23:29 11.3 11.2 99 1024.6 5.4 NW 5.4 0.0 0.3
23:30 11.3 11.2 99 1024.6 3.8 W 5.4 0.0 0.3
23:31 11.3 11.2 99 1024.5 3.1 W 5.4 0.0 0.3
23:32 11.3 11.2 99 1024.6 4.5 NW 5.4 0.0 0.3
23:33 11.3 11.2 99 1024.6 2.2 NW 5.4 0.0 0.3
23:34 11.1 11.0 99 1024.6 3.8 WNW 5.4 0.0 0.3
23:35 11.2 11.1 99 1024.6 3.1 N 5.4 0.0 0.3
23:36 11.2 11.1 99 1024.6 3.8 NE 5.4 0.0 0.3
23:37 11.2 11.1 99 1024.7 3.1 NW 5.4 0.0 0.3
23:38 11.2 11.1 99 1024.7 3.1 N 5.4 0.0 0.3
23:39 11.2 11.1 99 1024.8 4.5 NW 5.4 0.0 0.3
23:40 11.2 11.1 99 1024.7 1.6 NW 5.4 0.0 0.3
23:41 11.1 11.0 99 1024.8 4.5 NE 5.4 0.0 0.3
23:42 11.1 11.0 99 1024.9 3.1 W 5.4 0.0 0.3
23:43 11.1 11.0 99 1024.9 4.5 N 5.4 0.0 0.3
23:44 11.1 11.0 99 1024.7 3.1 E 4.5 0.0 0.3
23:45 11.1 11.0 99 1024.6 2.2 NW 4.5 0.0 0.3
23:46 11.1 11.0 99 1024.8 2.2 W 4.5 0.0 0.3
23:47 11.1 11.0 99 1024.7 3.1 W 4.5 0.0 0.3
23:48 11.0 10.9 99 1024.8 3.8 NW 4.5 0.0 0.3
23:49 11.0 10.9 99 1024.8 2.2 NW 4.5 0.0 0.3
23:50 11.0 10.9 99 1024.8 3.8 W 4.5 0.0 0.3
23:51 11.0 10.9 99 1024.8 2.2 N 4.5 0.0 0.3
23:52 11.0 10.9 99 1024.8 3.1 N 4.5 0.0 0.3
23:53 11.0 10.9 99 1024.7 3.1 W 3.8 0.0 0.3
23:54 11.0 10.9 99 1024.7 1.6 W 3.8 0.0 0.3
23:55 10.9 10.8 99 1024.7 2.2 W 3.8 0.0 0.3
23:56 10.9 10.8 99 1024.8 1.6 NW 3.8 0.0 0.3
23:58 10.9 10.8 99 1024.8 1.6 NW 3.8 0.0 0.3
23:59 10.9 10.8 99 1024.8 1.6 N 3.8 0.0 0.3

UK - WEATHER STATION TOPSITES - UK World Weather Websites

This is a private weather station, never base important decisions or events on data from this weather station. Although every effort has been made to make the data as accurate as possible it does not meet MetOffice standards. It is proved as a guide of local weather conditions. We accept no liability for any loss which may arise from use of the data.

Copyright © Carnkie Weather 2009 - 2018.